| time (UTC) | temp F | wind direction | speed MPH | gust MPH | rain 1hr in | rain 24hr in | rain mn in | humidity % | barometer mb |
| 20260509075056 | 68 | 115 | 7.0 | 12.0 | 0.00 | 0.03 | 0.00 | 87 | 1008.3 |
| 20260509074956 | 68 | 105 | 8.0 | 12.0 | 0.00 | 0.03 | 0.00 | 87 | 1008.4 |
| 20260509074856 | 68 | 106 | 7.0 | 12.0 | 0.00 | 0.03 | 0.00 | 87 | 1008.5 |
| 20260509074757 | 68 | 110 | 5.0 | 12.0 | 0.00 | 0.03 | 0.00 | 87 | 1008.5 |
| 20260509074656 | 68 | 115 | 5.0 | 9.0 | 0.00 | 0.03 | 0.00 | 87 | 1008.6 |
| 20260509074601 | 68 | 117 | 4.0 | 11.0 | 0.00 | 0.03 | 0.00 | 87 | 1007.9 |
| 20260509074556 | 68 | 117 | 5.0 | 11.0 | 0.00 | 0.03 | 0.00 | 87 | 1008.7 |
| 20260509074356 | 68 | 113 | 4.0 | 11.0 | 0.00 | 0.03 | 0.00 | 87 | 1008.7 |
| 20260509074257 | 68 | 113 | 4.0 | 11.0 | 0.00 | 0.03 | 0.00 | 87 | 1008.7 |
| 20260509074156 | 68 | 92 | 3.0 | 11.0 | 0.00 | 0.03 | 0.00 | 87 | 1008.7 |
| 20260509074056 | 68 | 115 | 3.0 | 11.0 | 0.00 | 0.03 | 0.00 | 87 | 1008.7 |
| 20260509073956 | 68 | 126 | 4.0 | 11.0 | 0.00 | 0.03 | 0.00 | 87 | 1008.6 |
| 20260509073856 | 68 | 106 | 4.0 | 11.0 | 0.00 | 0.03 | 0.00 | 87 | 1008.6 |
| 20260509073755 | 68 | 128 | 6.0 | 11.0 | 0.00 | 0.03 | 0.00 | 87 | 1008.6 |
| 20260509073656 | 68 | 128 | 5.0 | 10.0 | 0.00 | 0.03 | 0.00 | 87 | 1008.7 |
| 20260509073356 | 68 | 138 | 4.0 | 8.0 | 0.00 | 0.03 | 0.00 | 87 | 1008.6 |
| 20260509073256 | 68 | 117 | 3.0 | 8.0 | 0.00 | 0.03 | 0.00 | 87 | 1008.6 |
| 20260509073155 | 68 | 123 | 3.0 | 10.0 | 0.00 | 0.03 | 0.00 | 87 | 1008.7 |
| 20260509073056 | 68 | 98 | 3.0 | 10.0 | 0.00 | 0.03 | 0.00 | 87 | 1008.7 |
| 20260509072955 | 68 | 116 | 4.0 | 10.0 | 0.00 | 0.03 | 0.00 | 86 | 1008.6 |
| 20260509072855 | 68 | 107 | 3.0 | 11.0 | 0.00 | 0.03 | 0.00 | 86 | 1008.6 |
| 20260509072756 | 68 | 101 | 2.0 | 11.0 | 0.00 | 0.03 | 0.00 | 86 | 1008.5 |
| 20260509072656 | 68 | 134 | 1.0 | 11.0 | 0.00 | 0.03 | 0.00 | 86 | 1008.6 |
| 20260509072556 | 68 | 136 | 2.0 | 11.0 | 0.00 | 0.03 | 0.00 | 86 | 1008.6 |
| 20260509072457 | 68 | 171 | 4.0 | 11.0 | 0.00 | 0.03 | 0.00 | 86 | 1008.6 |
| 20260509072355 | 68 | 134 | 4.0 | 11.0 | 0.00 | 0.03 | 0.00 | 86 | 1008.6 |
| 20260509072255 | 68 | 130 | 4.0 | 11.0 | 0.00 | 0.03 | 0.00 | 86 | 1008.5 |
| 20260509072156 | 68 | 135 | 4.0 | 11.0 | 0.00 | 0.03 | 0.00 | 86 | 1008.5 |
| 20260509072056 | 68 | 121 | 6.0 | 11.0 | 0.00 | 0.03 | 0.00 | 86 | 1008.4 |
| 20260509071955 | 68 | 126 | 5.0 | 11.0 | 0.00 | 0.03 | 0.00 | 86 | 1008.5 |
| 20260509071856 | 68 | 144 | 5.0 | 9.0 | 0.00 | 0.03 | 0.00 | 86 | 1008.6 |
| 20260509071756 | 68 | 153 | 5.0 | 9.0 | 0.00 | 0.03 | 0.00 | 86 | 1008.7 |
| 20260509071656 | 68 | 130 | 5.0 | 9.0 | 0.00 | 0.03 | 0.00 | 86 | 1008.8 |
| 20260509071603 | 68 | 136 | 4.0 | 8.0 | 0.00 | 0.03 | 0.00 | 86 | 1008.0 |
| 20260509071556 | 68 | 136 | 4.0 | 8.0 | 0.00 | 0.03 | 0.00 | 86 | 1008.8 |
| 20260509071356 | 68 | 136 | 4.0 | 8.0 | 0.00 | 0.03 | 0.00 | 86 | 1008.9 |
| 20260509071156 | 68 | 140 | 5.0 | 8.0 | 0.00 | 0.03 | 0.00 | 86 | 1008.9 |
| 20260509071056 | 68 | 133 | 4.0 | 7.0 | 0.00 | 0.03 | 0.00 | 86 | 1008.9 |
| 20260509070955 | 68 | 140 | 2.0 | 7.0 | 0.00 | 0.03 | 0.00 | 86 | 1008.9 |
| 20260509070855 | 68 | 143 | 1.0 | 6.0 | 0.00 | 0.03 | 0.00 | 86 | 1009.0 |
| 20260509070756 | 69 | 136 | 1.0 | 3.0 | 0.00 | 0.03 | 0.00 | 86 | 1009.1 |
| 20260509070657 | 69 | 150 | 2.0 | 2.0 | 0.00 | 0.03 | 0.00 | 86 | 1009.2 |
| 20260509070456 | 69 | 143 | 1.0 | 4.0 | 0.00 | 0.03 | 0.00 | 86 | 1009.2 |
| 20260509070255 | 69 | 144 | 1.0 | 4.0 | 0.00 | 0.03 | 0.00 | 86 | 1009.2 |
| 20260509070156 | 69 | 131 | 1.0 | 4.0 | 0.00 | 0.03 | 0.00 | 86 | 1009.2 |
| 20260509070105 | 69 | 142 | 0.0 | 4.0 | 0.00 | 0.03 | 0.00 | 86 | 1008.4 |
| 20260509065856 | 69 | 125 | 1.0 | 4.0 | 0.00 | 0.03 | 0.00 | 86 | 1009.2 |
| 20260509065655 | 69 | 117 | 2.0 | 4.0 | 0.00 | 0.03 | 0.00 | 86 | 1009.3 |
| 20260509065555 | 69 | 132 | 2.0 | 4.0 | 0.00 | 0.03 | 0.00 | 86 | 1009.3 |
| 20260509065456 | 69 | 142 | 2.0 | 4.0 | 0.00 | 0.03 | 0.00 | 86 | 1009.4 |
| 20260509065356 | 69 | 139 | 2.0 | 4.0 | 0.00 | 0.03 | 0.00 | 86 | 1009.4 |
| 20260509065155 | 69 | 152 | 2.0 | 3.0 | 0.00 | 0.03 | 0.00 | 86 | 1009.5 |
| 20260509065055 | 69 | 156 | 1.0 | 2.0 | 0.00 | 0.03 | 0.00 | 86 | 1009.5 |
| 20260509064956 | 69 | 113 | 1.0 | 2.0 | 0.00 | 0.03 | 0.00 | 86 | 1009.5 |
| 20260509064856 | 69 | 111 | 1.0 | 2.0 | 0.00 | 0.03 | 0.00 | 86 | 1009.6 |
| 20260509064755 | 69 | 111 | 1.0 | 2.0 | 0.00 | 0.03 | 0.00 | 86 | 1009.5 |
| 20260509064556 | 69 | 103 | 1.0 | 2.0 | 0.00 | 0.03 | 0.00 | 86 | 1009.6 |
| 20260509064356 | 69 | 103 | 2.0 | 2.0 | 0.00 | 0.03 | 0.00 | 86 | 1009.8 |
| 20260509064056 | 69 | 90 | 1.0 | 2.0 | 0.00 | 0.03 | 0.00 | 86 | 1009.8 |
| 20260509063956 | 69 | 78 | 0.0 | 2.0 | 0.00 | 0.03 | 0.00 | 85 | 1009.9 |
| 20260509063855 | 69 | 44 | 0.0 | 0.0 | 0.00 | 0.03 | 0.00 | 85 | 1010.0 |
| 20260509063656 | 69 | 44 | 0.0 | 0.0 | 0.00 | 0.03 | 0.00 | 85 | 1010.0 |
| 20260509063456 | 69 | 44 | 0.0 | 3.0 | 0.00 | 0.03 | 0.00 | 85 | 1010.0 |
| 20260509063256 | 69 | 44 | 0.0 | 3.0 | 0.00 | 0.03 | 0.00 | 86 | 1010.0 |
| 20260509063157 | 69 | 44 | 0.0 | 3.0 | 0.00 | 0.03 | 0.00 | 86 | 1009.9 |
| 20260509063055 | 69 | 44 | 0.0 | 5.0 | 0.00 | 0.03 | 0.00 | 86 | 1009.1 |
| 20260509062957 | 69 | 44 | 0.0 | 5.0 | 0.00 | 0.03 | 0.00 | 86 | 1010.0 |
| 20260509062858 | 69 | 44 | 0.0 | 5.0 | 0.00 | 0.03 | 0.00 | 86 | 1010.0 |
| 20260509062758 | 69 | 44 | 1.0 | 5.0 | 0.00 | 0.03 | 0.00 | 86 | 1010.1 |
| 20260509062656 | 69 | 44 | 1.0 | 5.0 | 0.00 | 0.03 | 0.00 | 86 | 1010.1 |
| 20260509062555 | 69 | 57 | 1.0 | 5.0 | 0.00 | 0.03 | 0.00 | 86 | 1010.1 |
| 20260509062455 | 69 | 57 | 2.0 | 5.0 | 0.00 | 0.03 | 0.00 | 86 | 1010.0 |
| 20260509062257 | 69 | 42 | 1.0 | 3.0 | 0.00 | 0.03 | 0.00 | 86 | 1010.0 |
| 20260509062156 | 69 | 34 | 0.0 | 2.0 | 0.00 | 0.03 | 0.00 | 86 | 1009.9 |
| 20260509062055 | 69 | 60 | 0.0 | 2.0 | 0.00 | 0.03 | 0.00 | 86 | 1009.9 |
| 20260509061955 | 69 | 60 | 0.0 | 7.0 | 0.00 | 0.03 | 0.00 | 86 | 1009.9 |
| 20260509061855 | 69 | 60 | 0.0 | 7.0 | 0.00 | 0.03 | 0.00 | 86 | 1009.8 |
| 20260509061756 | 69 | 60 | 0.0 | 7.0 | 0.00 | 0.03 | 0.00 | 86 | 1009.8 |
| 20260509061657 | 69 | 60 | 0.0 | 7.0 | 0.00 | 0.03 | 0.00 | 86 | 1009.8 |
| 20260509061602 | 69 | 60 | 0.0 | 7.0 | 0.00 | 0.03 | 0.00 | 86 | 1009.0 |
| 20260509061556 | 69 | 60 | 0.0 | 7.0 | 0.00 | 0.03 | 0.00 | 86 | 1009.8 |
| 20260509061456 | 69 | 60 | 1.0 | 10.0 | 0.00 | 0.03 | 0.00 | 86 | 1009.9 |
| 20260509061356 | 68 | 60 | 2.0 | 10.0 | 0.00 | 0.03 | 0.00 | 86 | 1009.8 |
| 20260509061156 | 68 | 57 | 5.0 | 15.0 | 0.00 | 0.03 | 0.00 | 86 | 1009.8 |
| 20260509061057 | 68 | 77 | 4.0 | 15.0 | 0.00 | 0.03 | 0.00 | 86 | 1009.9 |
| 20260509060957 | 68 | 51 | 3.0 | 15.0 | 0.00 | 0.03 | 0.00 | 87 | 1010.0 |
| 20260509060857 | 68 | 349 | 2.0 | 15.0 | 0.00 | 0.03 | 0.00 | 87 | 1010.0 |
| 20260509060556 | 68 | 95 | 7.0 | 15.0 | 0.00 | 0.03 | 0.00 | 87 | 1009.9 |
| 20260509060456 | 68 | 67 | 6.0 | 15.0 | 0.00 | 0.03 | 0.00 | 87 | 1010.0 |
| 20260509060355 | 67 | 34 | 5.0 | 11.0 | 0.00 | 0.03 | 0.00 | 88 | 1010.0 |
| 20260509060255 | 67 | 63 | 5.0 | 11.0 | 0.00 | 0.03 | 0.00 | 88 | 1010.0 |
| 20260509060100 | 67 | 63 | 5.0 | 11.0 | 0.00 | 0.03 | 0.00 | 88 | 1009.3 |
| 20260509060056 | 67 | 63 | 5.0 | 11.0 | 0.00 | 0.03 | 0.00 | 88 | 1010.1 |
| 20260509060005 | 67 | 23 | 5.0 | 11.0 | 0.00 | 0.03 | 0.00 | 88 | 1009.3 |
| 20260509055902 | 67 | 18 | 5.0 | 9.0 | 0.00 | 0.03 | 0.00 | 88 | 1010.1 |
| 20260509055803 | 67 | 26 | 6.0 | 9.0 | 0.00 | 0.03 | 0.00 | 88 | 1010.0 |
| 20260509055703 | 67 | 26 | 6.0 | 9.0 | 0.00 | 0.03 | 0.00 | 89 | 1010.0 |
| 20260509055603 | 67 | 360 | 6.0 | 9.0 | 0.00 | 0.03 | 0.00 | 89 | 1009.9 |
| 20260509055502 | 67 | 360 | 7.0 | 9.0 | 0.00 | 0.03 | 0.00 | 89 | 1009.8 |
| 20260509055402 | 66 | 30 | 5.0 | 8.0 | 0.00 | 0.03 | 0.00 | 89 | 1009.8 |
| 20260509055306 | 66 | 16 | 4.0 | 6.0 | 0.00 | 0.03 | 0.00 | 89 | 1009.7 |
| 20260509055202 | 66 | 15 | 2.0 | 4.0 | 0.00 | 0.03 | 0.00 | 89 | 1009.5 |
| 20260509055102 | 66 | 338 | 1.0 | 3.0 | 0.00 | 0.03 | 0.00 | 89 | 1009.3 |
| 20260509055002 | 67 | 230 | 0.0 | 4.0 | 0.00 | 0.03 | 0.00 | 89 | 1009.1 |
| 20260509054903 | 67 | 182 | 1.0 | 4.0 | 0.00 | 0.03 | 0.00 | 89 | 1009.0 |
| 20260509054802 | 66 | 182 | 1.0 | 6.0 | 0.00 | 0.03 | 0.00 | 88 | 1008.8 |
| 20260509054702 | 67 | 184 | 1.0 | 6.0 | 0.00 | 0.03 | 0.00 | 88 | 1008.6 |
| 20260509054504 | 67 | 194 | 1.0 | 7.0 | 0.00 | 0.03 | 0.00 | 88 | 1007.8 |
| 20260509054402 | 67 | 191 | 1.0 | 7.0 | 0.00 | 0.03 | 0.00 | 88 | 1008.5 |
| 20260509054101 | 67 | 204 | 3.0 | 7.0 | 0.00 | 0.03 | 0.00 | 88 | 1008.2 |
| 20260509054002 | 67 | 185 | 3.0 | 7.0 | 0.00 | 0.03 | 0.00 | 88 | 1008.2 |
| 20260509053902 | 67 | 207 | 4.0 | 7.0 | 0.00 | 0.03 | 0.00 | 88 | 1008.3 |
| 20260509053801 | 67 | 184 | 5.0 | 7.0 | 0.00 | 0.03 | 0.00 | 88 | 1008.2 |
| 20260509053702 | 67 | 207 | 4.0 | 7.0 | 0.00 | 0.03 | 0.00 | 88 | 1008.2 |
| 20260509053503 | 67 | 186 | 4.0 | 7.0 | 0.00 | 0.03 | 0.00 | 87 | 1008.1 |
| 20260509053402 | 67 | 179 | 3.0 | 7.0 | 0.00 | 0.03 | 0.00 | 87 | 1008.2 |
| 20260509053302 | 67 | 185 | 3.0 | 7.0 | 0.00 | 0.03 | 0.00 | 87 | 1008.2 |
| 20260509053203 | 67 | 202 | 3.0 | 7.0 | 0.00 | 0.03 | 0.00 | 87 | 1008.2 |
| 20260509053103 | 67 | 184 | 3.0 | 7.0 | 0.00 | 0.03 | 0.00 | 87 | 1008.3 |
| 20260509053003 | 67 | 190 | 3.0 | 7.0 | 0.00 | 0.03 | 0.00 | 87 | 1007.5 |
| 20260509052903 | 67 | 182 | 4.0 | 7.0 | 0.00 | 0.03 | 0.00 | 87 | 1008.3 |
| 20260509052803 | 67 | 186 | 3.0 | 7.0 | 0.00 | 0.03 | 0.00 | 87 | 1008.4 |
| 20260509052703 | 67 | 186 | 4.0 | 7.0 | 0.00 | 0.03 | 0.00 | 87 | 1008.4 |
| 20260509052503 | 67 | 185 | 3.0 | 4.0 | 0.00 | 0.03 | 0.00 | 86 | 1008.6 |
| 20260509052403 | 67 | 188 | 3.0 | 4.0 | 0.00 | 0.03 | 0.00 | 86 | 1008.8 |
| 20260509052306 | 67 | 208 | 2.0 | 4.0 | 0.00 | 0.03 | 0.00 | 86 | 1008.9 |
| 20260509052202 | 67 | 192 | 2.0 | 4.0 | 0.00 | 0.03 | 0.00 | 86 | 1009.0 |
| 20260509052003 | 67 | 217 | 1.0 | 6.0 | 0.00 | 0.03 | 0.00 | 86 | 1009.1 |
| 20260509051803 | 67 | 228 | 0.0 | 6.0 | 0.00 | 0.03 | 0.00 | 86 | 1009.2 |
| 20260509051702 | 67 | 227 | 1.0 | 6.0 | 0.00 | 0.03 | 0.00 | 86 | 1009.1 |
| 20260509051602 | 67 | 219 | 1.0 | 6.0 | 0.00 | 0.03 | 0.00 | 86 | 1009.1 |
| 20260509051502 | 67 | 193 | 2.0 | 6.0 | 0.00 | 0.03 | 0.00 | 86 | 1009.1 |
| 20260509051302 | 67 | 206 | 2.0 | 6.0 | 0.00 | 0.03 | 0.00 | 86 | 1008.9 |
| 20260509051202 | 67 | 211 | 3.0 | 6.0 | 0.00 | 0.03 | 0.00 | 86 | 1008.9 |
| 20260509051103 | 68 | 196 | 3.0 | 6.0 | 0.00 | 0.03 | 0.00 | 86 | 1008.9 |
| 20260509050902 | 67 | 213 | 2.0 | 5.0 | 0.00 | 0.03 | 0.00 | 86 | 1009.1 |
| 20260509050803 | 68 | 202 | 1.0 | 5.0 | 0.00 | 0.03 | 0.00 | 86 | 1009.1 |
| 20260509050603 | 68 | 217 | 1.0 | 4.0 | 0.00 | 0.03 | 0.00 | 86 | 1009.3 |
| 20260509050402 | 67 | 211 | 1.0 | 4.0 | 0.00 | 0.03 | 0.00 | 86 | 1009.4 |
| 20260509050203 | 67 | 252 | 1.0 | 6.0 | 0.00 | 0.03 | 0.00 | 87 | 1009.5 |
| 20260509050015 | 67 | 228 | 0.0 | 6.0 | 0.00 | 0.03 | 0.03 | 87 | 1008.8 |
| 20260509045800 | 67 | 247 | 1.0 | 6.0 | 0.00 | 0.03 | 0.03 | 87 | 1009.5 |
| 20260509045700 | 67 | 232 | 2.0 | 6.0 | 0.00 | 0.03 | 0.03 | 87 | 1009.4 |
| 20260509045601 | 67 | 225 | 1.0 | 6.0 | 0.00 | 0.03 | 0.03 | 87 | 1009.4 |
| 20260509045501 | 67 | 259 | 1.0 | 6.0 | 0.00 | 0.03 | 0.03 | 87 | 1009.4 |
| 20260509045401 | 67 | 238 | 1.0 | 3.0 | 0.00 | 0.03 | 0.03 | 87 | 1009.4 |
| 20260509045301 | 67 | 236 | 1.0 | 3.0 | 0.00 | 0.03 | 0.03 | 87 | 1009.4 |
| 20260509045201 | 67 | 222 | 2.0 | 3.0 | 0.00 | 0.03 | 0.03 | 87 | 1009.4 |
| 20260509045003 | 67 | 237 | 1.0 | 3.0 | 0.00 | 0.03 | 0.03 | 87 | 1009.5 |
| 20260509044901 | 67 | 214 | 1.0 | 3.0 | 0.00 | 0.03 | 0.03 | 87 | 1009.5 |
| 20260509044800 | 67 | 244 | 1.0 | 3.0 | 0.00 | 0.03 | 0.03 | 87 | 1009.5 |
| 20260509044701 | 67 | 236 | 0.0 | 3.0 | 0.00 | 0.03 | 0.03 | 87 | 1009.6 |
| 20260509044601 | 67 | 238 | 0.0 | 2.0 | 0.00 | 0.03 | 0.03 | 87 | 1009.7 |
| 20260509044501 | 66 | 205 | 0.0 | 2.0 | 0.00 | 0.03 | 0.03 | 87 | 1009.6 |
| 20260509044401 | 66 | 205 | 0.0 | 2.0 | 0.00 | 0.03 | 0.03 | 87 | 1009.7 |
| 20260509044301 | 66 | 205 | 0.0 | 2.0 | 0.00 | 0.03 | 0.03 | 87 | 1009.7 |
| 20260509044101 | 66 | 204 | 0.0 | 2.0 | 0.00 | 0.03 | 0.03 | 87 | 1009.8 |
| 20260509044002 | 66 | 204 | 0.0 | 2.0 | 0.00 | 0.03 | 0.03 | 87 | 1009.9 |
| 20260509043800 | 66 | 203 | 0.0 | 2.0 | 0.00 | 0.03 | 0.03 | 87 | 1009.9 |
| 20260509043601 | 66 | 203 | 0.0 | 2.0 | 0.00 | 0.03 | 0.03 | 87 | 1010.0 |
| 20260509043501 | 66 | 203 | 0.0 | 2.0 | 0.00 | 0.03 | 0.03 | 86 | 1010.0 |
| 20260509043401 | 66 | 203 | 0.0 | 2.0 | 0.00 | 0.03 | 0.03 | 86 | 1010.0 |
| 20260509043301 | 66 | 203 | 0.0 | 2.0 | 0.00 | 0.03 | 0.03 | 86 | 1009.9 |
| 20260509043200 | 66 | 203 | 0.0 | 2.0 | 0.00 | 0.03 | 0.03 | 86 | 1009.9 |
| 20260509043102 | 66 | 203 | 0.0 | 2.0 | 0.00 | 0.03 | 0.03 | 86 | 1009.2 |
| 20260509043001 | 66 | 203 | 0.0 | 2.0 | 0.00 | 0.03 | 0.03 | 86 | 1009.8 |
| 20260509042800 | 66 | 203 | 0.0 | 2.0 | 0.00 | 0.03 | 0.03 | 86 | 1009.7 |
| 20260509042701 | 66 | 202 | 0.0 | 2.0 | 0.00 | 0.03 | 0.03 | 86 | 1009.6 |
| 20260509042601 | 66 | 202 | 0.0 | 2.0 | 0.00 | 0.03 | 0.03 | 86 | 1009.5 |
| 20260509042501 | 66 | 202 | 0.0 | 2.0 | 0.00 | 0.03 | 0.03 | 86 | 1009.5 |
| 20260509042401 | 66 | 202 | 0.0 | 2.0 | 0.00 | 0.03 | 0.03 | 86 | 1009.5 |
| 20260509042301 | 66 | 202 | 1.0 | 2.0 | 0.00 | 0.03 | 0.03 | 86 | 1009.5 |
| 20260509042200 | 66 | 202 | 1.0 | 2.0 | 0.00 | 0.03 | 0.03 | 86 | 1009.6 |
| 20260509041902 | 66 | 201 | 1.0 | 2.0 | 0.00 | 0.03 | 0.03 | 86 | 1009.8 |
| 20260509041701 | 66 | 162 | 0.0 | 2.0 | 0.00 | 0.03 | 0.03 | 85 | 1009.8 |
| 20260509041600 | 66 | 162 | 0.0 | 2.0 | 0.00 | 0.03 | 0.03 | 85 | 1009.8 |
| 20260509041502 | 66 | 162 | 0.0 | 0.0 | 0.00 | 0.03 | 0.03 | 85 | 1009.7 |
| 20260509040902 | 67 | 162 | 0.0 | 3.0 | 0.00 | 0.03 | 0.03 | 84 | 1009.6 |
| 20260509040803 | 67 | 162 | 0.0 | 3.0 | 0.00 | 0.03 | 0.03 | 84 | 1009.5 |
| 20260509040700 | 67 | 162 | 0.0 | 3.0 | 0.00 | 0.03 | 0.03 | 85 | 1009.4 |
| 20260509040601 | 67 | 162 | 0.0 | 3.0 | 0.00 | 0.03 | 0.03 | 85 | 1009.3 |
| 20260509040501 | 67 | 162 | 0.0 | 3.0 | 0.00 | 0.03 | 0.03 | 85 | 1009.2 |
| 20260509040401 | 67 | 162 | 0.0 | 3.0 | 0.00 | 0.03 | 0.03 | 85 | 1009.2 |
| 20260509040201 | 67 | 162 | 1.0 | 3.0 | 0.00 | 0.03 | 0.03 | 85 | 1009.2 |
| 20260509040115 | 67 | 162 | 1.0 | 3.0 | 0.00 | 0.03 | 0.03 | 84 | 1008.5 |
| 20260509040101 | 67 | 162 | 1.0 | 3.0 | 0.00 | 0.03 | 0.03 | 84 | 1009.2 |
| 20260509040001 | 67 | 162 | 0.0 | 2.0 | 0.00 | 0.03 | 0.03 | 84 | 1008.4 |
| 20260509035901 | 67 | 162 | 0.0 | 2.0 | 0.00 | 0.03 | 0.03 | 84 | 1009.1 |
| 20260509035801 | 67 | 162 | 0.0 | 2.0 | 0.00 | 0.03 | 0.03 | 84 | 1009.2 |
| 20260509035600 | 67 | 162 | 0.0 | 3.0 | 0.00 | 0.03 | 0.03 | 84 | 1009.2 |
| 20260509035500 | 67 | 162 | 0.0 | 3.0 | 0.00 | 0.03 | 0.03 | 84 | 1009.2 |
| 20260509035301 | 67 | 162 | 1.0 | 3.0 | 0.00 | 0.03 | 0.03 | 84 | 1009.2 |
| 20260509035101 | 67 | 172 | 1.0 | 3.0 | 0.00 | 0.03 | 0.03 | 84 | 1009.0 |
| 20260509035001 | 67 | 172 | 1.0 | 4.0 | 0.00 | 0.03 | 0.03 | 84 | 1009.0 |
| 20260509034901 | 67 | 173 | 2.0 | 4.0 | 0.00 | 0.03 | 0.03 | 84 | 1009.0 |
| 20260509034801 | 67 | 173 | 2.0 | 4.0 | 0.00 | 0.03 | 0.03 | 84 | 1008.9 |
| 20260509034602 | 67 | 178 | 1.0 | 6.0 | 0.00 | 0.03 | 0.03 | 84 | 1009.0 |
| 20260509034501 | 67 | 179 | 1.0 | 6.0 | 0.00 | 0.03 | 0.03 | 84 | 1009.0 |
| 20260509034401 | 67 | 184 | 1.0 | 6.0 | 0.00 | 0.03 | 0.03 | 84 | 1008.9 |
| 20260509034301 | 67 | 186 | 2.0 | 6.0 | 0.00 | 0.03 | 0.03 | 84 | 1008.9 |
| 20260509034000 | 67 | 192 | 2.0 | 6.0 | 0.00 | 0.03 | 0.03 | 84 | 1008.8 |
| 20260509033900 | 67 | 188 | 3.0 | 6.0 | 0.00 | 0.03 | 0.03 | 84 | 1008.9 |
| 20260509033801 | 67 | 174 | 3.0 | 6.0 | 0.00 | 0.03 | 0.03 | 84 | 1009.0 |
| 20260509033601 | 67 | 188 | 3.0 | 6.0 | 0.00 | 0.03 | 0.03 | 84 | 1009.1 |
| 20260509033402 | 67 | 191 | 3.0 | 6.0 | 0.00 | 0.03 | 0.03 | 84 | 1008.9 |
| 20260509033103 | 67 | 203 | 3.0 | 6.0 | 0.00 | 0.03 | 0.03 | 83 | 1007.9 |
| 20260509033001 | 67 | 196 | 3.0 | 6.0 | 0.00 | 0.03 | 0.03 | 83 | 1007.8 |
| 20260509032902 | 67 | 201 | 3.0 | 6.0 | 0.00 | 0.03 | 0.03 | 83 | 1008.5 |
| 20260509032801 | 67 | 198 | 4.0 | 6.0 | 0.00 | 0.03 | 0.03 | 83 | 1008.5 |
| 20260509032701 | 68 | 200 | 4.0 | 6.0 | 0.00 | 0.03 | 0.03 | 83 | 1008.6 |
| 20260509032601 | 68 | 201 | 3.0 | 6.0 | 0.00 | 0.03 | 0.03 | 82 | 1008.6 |
| 20260509032501 | 68 | 192 | 3.0 | 5.0 | 0.00 | 0.03 | 0.03 | 82 | 1008.6 |
| 20260509032301 | 68 | 197 | 3.0 | 5.0 | 0.00 | 0.03 | 0.03 | 82 | 1008.6 |
| 20260509032000 | 68 | 194 | 3.0 | 6.0 | 0.00 | 0.03 | 0.03 | 82 | 1008.4 |
| 20260509031900 | 68 | 194 | 3.0 | 6.0 | 0.00 | 0.03 | 0.03 | 81 | 1008.4 |
| 20260509031800 | 68 | 181 | 3.0 | 6.0 | 0.00 | 0.03 | 0.03 | 81 | 1008.4 |
| 20260509031700 | 68 | 192 | 3.0 | 6.0 | 0.00 | 0.03 | 0.03 | 81 | 1008.4 |
| 20260509031602 | 68 | 192 | 3.0 | 6.0 | 0.00 | 0.03 | 0.03 | 81 | 1008.5 |
| 20260509031400 | 68 | 201 | 2.0 | 4.0 | 0.00 | 0.03 | 0.03 | 81 | 1008.5 |
| 20260509031301 | 68 | 205 | 2.0 | 4.0 | 0.00 | 0.03 | 0.03 | 81 | 1008.6 |
| 20260509031201 | 69 | 204 | 2.0 | 4.0 | 0.00 | 0.03 | 0.03 | 81 | 1008.6 |
| 20260509031101 | 69 | 215 | 2.0 | 4.0 | 0.00 | 0.03 | 0.03 | 81 | 1008.7 |
| 20260509031001 | 69 | 202 | 1.0 | 4.0 | 0.00 | 0.03 | 0.03 | 81 | 1008.6 |
| 20260509030901 | 69 | 187 | 1.0 | 4.0 | 0.00 | 0.03 | 0.03 | 81 | 1008.6 |
| 20260509030801 | 69 | 184 | 1.0 | 4.0 | 0.00 | 0.03 | 0.03 | 81 | 1008.6 |
| 20260509030701 | 69 | 185 | 1.0 | 4.0 | 0.00 | 0.03 | 0.03 | 81 | 1008.6 |
| 20260509030601 | 69 | 184 | 1.0 | 9.0 | 0.00 | 0.03 | 0.03 | 81 | 1008.6 |
| 20260509030500 | 69 | 184 | 2.0 | 9.0 | 0.00 | 0.03 | 0.03 | 81 | 1008.6 |
| 20260509030401 | 69 | 184 | 2.0 | 9.0 | 0.00 | 0.03 | 0.03 | 81 | 1008.6 |
| 20260509030302 | 69 | 180 | 2.0 | 9.0 | 0.00 | 0.03 | 0.03 | 81 | 1008.6 |
| 20260509030110 | 68 | 212 | 1.0 | 9.0 | 0.00 | 0.03 | 0.03 | 81 | 1007.9 |
| 20260509030101 | 68 | 212 | 1.0 | 9.0 | 0.00 | 0.03 | 0.03 | 81 | 1008.6 |
| 20260509030006 | 68 | 184 | 2.0 | 9.0 | 0.00 | 0.03 | 0.03 | 81 | 1007.8 |
| 20260509025901 | 68 | 182 | 3.0 | 9.0 | 0.00 | 0.03 | 0.03 | 81 | 1008.5 |
| 20260509025800 | 68 | 179 | 4.0 | 9.0 | 0.00 | 0.03 | 0.03 | 81 | 1008.4 |
| 20260509025700 | 68 | 200 | 4.0 | 8.0 | 0.00 | 0.03 | 0.03 | 81 | 1008.4 |
| 20260509025502 | 68 | 191 | 4.0 | 8.0 | 0.00 | 0.03 | 0.03 | 81 | 1008.4 |
| 20260509025403 | 68 | 200 | 4.0 | 8.0 | 0.00 | 0.03 | 0.03 | 81 | 1008.5 |
| 20260509025301 | 68 | 196 | 4.0 | 8.0 | 0.00 | 0.03 | 0.03 | 81 | 1008.5 |
| 20260509025101 | 68 | 179 | 5.0 | 7.0 | 0.00 | 0.03 | 0.03 | 81 | 1008.6 |
| 20260509025002 | 68 | 155 | 5.0 | 7.0 | 0.00 | 0.03 | 0.03 | 81 | 1008.6 |
| 20260509024801 | 68 | 163 | 4.0 | 7.0 | 0.00 | 0.03 | 0.03 | 81 | 1008.8 |
| 20260509024601 | 69 | 171 | 4.0 | 6.0 | 0.00 | 0.03 | 0.03 | 81 | 1008.1 |
| 20260509024401 | 69 | 155 | 4.0 | 5.0 | 0.00 | 0.03 | 0.03 | 81 | 1008.9 |
| 20260509024301 | 69 | 158 | 4.0 | 6.0 | 0.00 | 0.03 | 0.03 | 81 | 1009.0 |
| 20260509024201 | 69 | 157 | 3.0 | 5.0 | 0.00 | 0.03 | 0.03 | 81 | 1009.0 |
| 20260509024101 | 69 | 143 | 3.0 | 4.0 | 0.00 | 0.03 | 0.03 | 81 | 1009.0 |
| 20260509024001 | 69 | 138 | 2.0 | 3.0 | 0.00 | 0.03 | 0.03 | 81 | 1009.0 |
| 20260509023901 | 69 | 136 | 2.0 | 3.0 | 0.00 | 0.03 | 0.03 | 81 | 1009.1 |
| 20260509023801 | 69 | 136 | 2.0 | 3.0 | 0.00 | 0.03 | 0.03 | 81 | 1009.1 |
| 20260509023501 | 69 | 135 | 3.0 | 3.0 | 0.00 | 0.03 | 0.03 | 81 | 1009.1 |
| 20260509023402 | 69 | 134 | 2.0 | 3.0 | 0.00 | 0.03 | 0.03 | 81 | 1009.2 |
| 20260509023301 | 69 | 134 | 2.0 | 3.0 | 0.00 | 0.03 | 0.03 | 81 | 1009.3 |
| 20260509023201 | 69 | 134 | 2.0 | 2.0 | 0.00 | 0.03 | 0.03 | 81 | 1009.2 |
| 20260509023100 | 69 | 134 | 1.0 | 2.0 | 0.00 | 0.03 | 0.03 | 81 | 1008.6 |
| 20260509023000 | 69 | 134 | 1.0 | 2.0 | 0.00 | 0.03 | 0.03 | 81 | 1009.4 |
| 20260509022900 | 69 | 134 | 0.0 | 2.0 | 0.00 | 0.03 | 0.03 | 81 | 1009.4 |
| 20260509022801 | 69 | 134 | 0.0 | 2.0 | 0.00 | 0.03 | 0.03 | 81 | 1009.4 |
| 20260509022701 | 69 | 134 | 0.0 | 2.0 | 0.00 | 0.03 | 0.03 | 81 | 1009.4 |
| 20260509022601 | 69 | 134 | 0.0 | 2.0 | 0.00 | 0.03 | 0.03 | 81 | 1009.4 |
| 20260509022501 | 69 | 134 | 0.0 | 2.0 | 0.00 | 0.03 | 0.03 | 81 | 1009.4 |
| 20260509022401 | 69 | 134 | 0.0 | 2.0 | 0.00 | 0.03 | 0.03 | 81 | 1009.3 |
| 20260509022301 | 69 | 134 | 0.0 | 2.0 | 0.00 | 0.03 | 0.03 | 81 | 1009.3 |
| 20260509022200 | 69 | 134 | 0.0 | 2.0 | 0.00 | 0.03 | 0.03 | 81 | 1009.2 |
| 20260509022100 | 69 | 134 | 0.0 | 2.0 | 0.00 | 0.03 | 0.03 | 81 | 1009.1 |
| 20260509022000 | 69 | 134 | 0.0 | 2.0 | 0.00 | 0.03 | 0.03 | 80 | 1009.2 |
| 20260509021900 | 69 | 134 | 0.0 | 2.0 | 0.00 | 0.03 | 0.03 | 80 | 1009.0 |
| 20260509021800 | 69 | 134 | 0.0 | 2.0 | 0.00 | 0.03 | 0.03 | 80 | 1009.1 |
| 20260509021700 | 69 | 134 | 0.0 | 2.0 | 0.00 | 0.03 | 0.03 | 80 | 1009.0 |
| 20260509021602 | 69 | 134 | 0.0 | 2.0 | 0.00 | 0.03 | 0.03 | 80 | 1008.2 |
| 20260509021501 | 69 | 134 | 1.0 | 2.0 | 0.00 | 0.03 | 0.03 | 80 | 1008.9 |
| 20260509021400 | 69 | 134 | 1.0 | 2.0 | 0.00 | 0.03 | 0.03 | 80 | 1008.8 |
| 20260509021200 | 69 | 134 | 0.0 | 3.0 | 0.00 | 0.03 | 0.03 | 80 | 1008.8 |
| 20260509021103 | 69 | 134 | 0.0 | 3.0 | 0.00 | 0.03 | 0.03 | 80 | 1008.7 |
| 20260509021002 | 69 | 134 | 1.0 | 3.0 | 0.00 | 0.03 | 0.03 | 80 | 1008.7 |
| 20260509020800 | 69 | 134 | 0.0 | 4.0 | 0.00 | 0.03 | 0.03 | 80 | 1008.7 |
| 20260509020401 | 69 | 134 | 2.0 | 4.0 | 0.00 | 0.03 | 0.03 | 80 | 1008.5 |
| 20260509020301 | 70 | 134 | 2.0 | 4.0 | 0.00 | 0.03 | 0.03 | 80 | 1008.4 |
| 20260509020002 | 70 | 139 | 2.0 | 4.0 | 0.00 | 0.03 | 0.03 | 80 | 1008.3 |
| 20260509015901 | 70 | 141 | 2.0 | 4.0 | 0.00 | 0.03 | 0.03 | 80 | 1008.3 |
| 20260509015802 | 70 | 143 | 1.0 | 3.0 | 0.00 | 0.03 | 0.03 | 80 | 1008.3 |
| 20260509015700 | 70 | 134 | 2.0 | 3.0 | 0.00 | 0.03 | 0.03 | 80 | 1008.3 |
| 20260509015500 | 70 | 129 | 2.0 | 3.0 | 0.00 | 0.03 | 0.03 | 80 | 1008.3 |
| 20260509015401 | 70 | 132 | 1.0 | 3.0 | 0.00 | 0.03 | 0.03 | 80 | 1008.3 |
| 20260509015301 | 70 | 132 | 1.0 | 3.0 | 0.00 | 0.03 | 0.03 | 80 | 1008.2 |
| 20260509015201 | 70 | 139 | 1.0 | 4.0 | 0.00 | 0.03 | 0.03 | 80 | 1008.1 |
| 20260509015101 | 70 | 140 | 1.0 | 4.0 | 0.00 | 0.03 | 0.03 | 80 | 1008.1 |
| 20260509015001 | 70 | 140 | 1.0 | 4.0 | 0.00 | 0.03 | 0.03 | 80 | 1008.0 |
| 20260509014901 | 70 | 140 | 2.0 | 4.0 | 0.00 | 0.03 | 0.03 | 80 | 1008.0 |
| 20260509014801 | 70 | 140 | 2.0 | 4.0 | 0.00 | 0.03 | 0.03 | 80 | 1007.9 |
| 20260509014703 | 70 | 142 | 2.0 | 4.0 | 0.00 | 0.03 | 0.03 | 79 | 1007.9 |
| 20260509014601 | 70 | 139 | 2.0 | 4.0 | 0.00 | 0.03 | 0.03 | 79 | 1007.9 |
| 20260509014502 | 70 | 140 | 2.0 | 4.0 | 0.00 | 0.03 | 0.03 | 79 | 1007.9 |
| 20260509014400 | 70 | 140 | 2.0 | 4.0 | 0.00 | 0.03 | 0.03 | 79 | 1007.9 |
| 20260509014302 | 70 | 150 | 1.0 | 4.0 | 0.00 | 0.03 | 0.03 | 79 | 1008.0 |
| 20260509014201 | 70 | 149 | 1.0 | 4.0 | 0.00 | 0.03 | 0.03 | 79 | 1007.9 |
| 20260509014101 | 70 | 156 | 1.0 | 4.0 | 0.00 | 0.03 | 0.03 | 79 | 1007.9 |
| 20260509014000 | 70 | 160 | 1.0 | 6.0 | 0.00 | 0.03 | 0.03 | 79 | 1007.9 |
| 20260509013902 | 70 | 158 | 1.0 | 6.0 | 0.00 | 0.03 | 0.03 | 78 | 1007.8 |
| 20260509013800 | 70 | 136 | 2.0 | 6.0 | 0.00 | 0.03 | 0.03 | 78 | 1007.8 |
| 20260509013701 | 70 | 163 | 2.0 | 5.0 | 0.00 | 0.03 | 0.03 | 78 | 1007.7 |
| 20260509013602 | 70 | 153 | 2.0 | 5.0 | 0.00 | 0.03 | 0.03 | 78 | 1007.7 |
| 20260509013401 | 70 | 169 | 3.0 | 9.0 | 0.00 | 0.03 | 0.03 | 78 | 1007.5 |
| 20260509013301 | 70 | 152 | 3.0 | 9.0 | 0.00 | 0.03 | 0.03 | 78 | 1007.5 |
| 20260509013201 | 70 | 153 | 3.0 | 9.0 | 0.00 | 0.03 | 0.03 | 78 | 1007.5 |
| 20260509013116 | 71 | 147 | 2.0 | 9.0 | 0.00 | 0.03 | 0.03 | 78 | 1006.6 |
| 20260509013101 | 71 | 147 | 3.0 | 9.0 | 0.00 | 0.03 | 0.03 | 78 | 1007.4 |
| 20260509013001 | 71 | 162 | 3.0 | 9.0 | 0.00 | 0.03 | 0.03 | 78 | 1007.3 |
| 20260509012901 | 71 | 163 | 3.0 | 9.0 | 0.00 | 0.03 | 0.03 | 78 | 1007.3 |
| 20260509012801 | 71 | 162 | 4.0 | 9.0 | 0.00 | 0.03 | 0.03 | 78 | 1007.4 |
| 20260509012701 | 71 | 177 | 5.0 | 9.0 | 0.00 | 0.03 | 0.03 | 77 | 1007.4 |
| 20260509012501 | 71 | 156 | 3.0 | 5.0 | 0.00 | 0.03 | 0.03 | 77 | 1007.5 |
| 20260509012401 | 71 | 173 | 3.0 | 5.0 | 0.00 | 0.03 | 0.03 | 77 | 1007.5 |
| 20260509012302 | 71 | 169 | 3.0 | 5.0 | 0.00 | 0.03 | 0.03 | 77 | 1007.5 |
| 20260509012101 | 71 | 164 | 4.0 | 5.0 | 0.00 | 0.03 | 0.03 | 77 | 1007.6 |
| 20260509011902 | 71 | 165 | 3.0 | 5.0 | 0.00 | 0.03 | 0.03 | 76 | 1007.5 |
| 20260509011801 | 71 | 167 | 2.0 | 5.0 | 0.00 | 0.03 | 0.03 | 76 | 1007.5 |
| 20260509011702 | 71 | 165 | 2.0 | 5.0 | 0.00 | 0.03 | 0.03 | 76 | 1007.5 |
| 20260509011608 | 72 | 184 | 2.0 | 5.0 | 0.00 | 0.03 | 0.03 | 76 | 1006.7 |
| 20260509011601 | 72 | 184 | 2.0 | 5.0 | 0.00 | 0.03 | 0.03 | 76 | 1007.4 |
| 20260509011501 | 72 | 178 | 2.0 | 5.0 | 0.00 | 0.03 | 0.03 | 76 | 1007.4 |
| 20260509011401 | 72 | 190 | 2.0 | 5.0 | 0.00 | 0.03 | 0.03 | 76 | 1007.4 |
| 20260509011201 | 72 | 178 | 2.0 | 7.0 | 0.00 | 0.03 | 0.03 | 75 | 1007.4 |
| 20260509011101 | 72 | 159 | 2.0 | 7.0 | 0.00 | 0.03 | 0.03 | 76 | 1007.4 |
| 20260509010902 | 72 | 176 | 3.0 | 7.0 | 0.00 | 0.03 | 0.03 | 75 | 1007.4 |
| 20260509010801 | 72 | 169 | 3.0 | 7.0 | 0.00 | 0.03 | 0.03 | 75 | 1007.4 |
| 20260509010701 | 72 | 187 | 3.0 | 8.0 | 0.00 | 0.03 | 0.03 | 75 | 1007.4 |
| 20260509010602 | 72 | 157 | 2.0 | 8.0 | 0.00 | 0.03 | 0.03 | 75 | 1007.4 |
| 20260509010501 | 72 | 185 | 3.0 | 8.0 | 0.00 | 0.03 | 0.03 | 75 | 1007.4 |
| 20260509010402 | 72 | 180 | 4.0 | 8.0 | 0.00 | 0.03 | 0.03 | 75 | 1007.4 |
| 20260509010100 | 73 | 172 | 3.0 | 10.0 | 0.00 | 0.03 | 0.03 | 74 | 1006.6 |
| 20260509010006 | 73 | 188 | 4.0 | 10.0 | 0.00 | 0.03 | 0.03 | 74 | 1006.6 |
| 20260509010003 | 73 | 188 | 4.0 | 10.0 | 0.00 | 0.03 | 0.03 | 74 | 1007.3 |
| 20260509005901 | 73 | 194 | 4.0 | 10.0 | 0.00 | 0.03 | 0.03 | 74 | 1007.3 |
| 20260509005801 | 73 | 186 | 3.0 | 10.0 | 0.00 | 0.03 | 0.03 | 74 | 1007.3 |
| 20260509005701 | 73 | 181 | 3.0 | 10.0 | 0.00 | 0.03 | 0.03 | 74 | 1007.2 |
| 20260509005601 | 73 | 175 | 3.0 | 10.0 | 0.00 | 0.03 | 0.03 | 74 | 1007.3 |
| 20260509005502 | 73 | 175 | 3.0 | 10.0 | 0.00 | 0.03 | 0.03 | 74 | 1007.3 |
| 20260509005401 | 73 | 176 | 4.0 | 10.0 | 0.00 | 0.03 | 0.03 | 74 | 1007.3 |
| 20260509005301 | 73 | 180 | 5.0 | 8.0 | 0.00 | 0.03 | 0.03 | 74 | 1007.4 |
| 20260509005202 | 73 | 192 | 5.0 | 8.0 | 0.00 | 0.03 | 0.03 | 74 | 1007.3 |
| 20260509005101 | 73 | 151 | 4.0 | 9.0 | 0.00 | 0.03 | 0.03 | 74 | 1007.3 |
| 20260509005001 | 73 | 199 | 4.0 | 9.0 | 0.00 | 0.03 | 0.03 | 74 | 1007.3 |
| 20260509004902 | 73 | 190 | 5.0 | 9.0 | 0.00 | 0.03 | 0.03 | 73 | 1007.4 |
| 20260509004801 | 73 | 200 | 5.0 | 9.0 | 0.00 | 0.03 | 0.03 | 74 | 1007.3 |
| 20260509004701 | 73 | 150 | 3.0 | 9.0 | 0.00 | 0.03 | 0.03 | 74 | 1007.4 |
| 20260509004607 | 73 | 170 | 3.0 | 9.0 | 0.00 | 0.03 | 0.03 | 74 | 1006.6 |
| 20260509004601 | 73 | 170 | 3.0 | 9.0 | 0.00 | 0.03 | 0.03 | 74 | 1007.4 |
| 20260509004500 | 73 | 182 | 4.0 | 9.0 | 0.00 | 0.03 | 0.03 | 74 | 1007.4 |
| 20260509004401 | 73 | 165 | 4.0 | 9.0 | 0.00 | 0.03 | 0.03 | 74 | 1007.4 |
| 20260509004301 | 73 | 191 | 3.0 | 8.0 | 0.00 | 0.03 | 0.03 | 74 | 1007.4 |
| 20260509004201 | 73 | 151 | 4.0 | 8.0 | 0.00 | 0.03 | 0.03 | 74 | 1007.4 |
| 20260509004102 | 73 | 161 | 4.0 | 8.0 | 0.00 | 0.03 | 0.03 | 74 | 1007.4 |
| 20260509004001 | 73 | 194 | 4.0 | 9.0 | 0.00 | 0.03 | 0.03 | 74 | 1007.4 |
| 20260509003701 | 73 | 172 | 4.0 | 9.0 | 0.00 | 0.03 | 0.03 | 74 | 1007.5 |
| 20260509003601 | 74 | 183 | 3.0 | 9.0 | 0.00 | 0.03 | 0.03 | 74 | 1007.4 |
| 20260509003401 | 74 | 157 | 4.0 | 9.0 | 0.00 | 0.03 | 0.03 | 74 | 1007.4 |
| 20260509003301 | 74 | 182 | 5.0 | 9.0 | 0.00 | 0.03 | 0.03 | 73 | 1007.5 |
| 20260509003201 | 74 | 200 | 5.0 | 9.0 | 0.00 | 0.03 | 0.03 | 73 | 1007.4 |
| 20260509003134 | 74 | 159 | 4.0 | 9.0 | 0.00 | 0.03 | 0.03 | 73 | 1006.7 |
| 20260509003101 | 74 | 159 | 4.0 | 9.0 | 0.00 | 0.03 | 0.03 | 73 | 1007.4 |
| 20260509003001 | 74 | 171 | 4.0 | 11.0 | 0.00 | 0.03 | 0.03 | 73 | 1007.5 |
| 20260509002901 | 74 | 169 | 4.0 | 11.0 | 0.00 | 0.03 | 0.03 | 73 | 1007.4 |
| 20260509002801 | 74 | 175 | 3.0 | 11.0 | 0.00 | 0.03 | 0.03 | 73 | 1007.4 |
| 20260509002700 | 74 | 175 | 4.0 | 11.0 | 0.00 | 0.03 | 0.03 | 73 | 1007.4 |
| 20260509002600 | 74 | 173 | 5.0 | 11.0 | 0.00 | 0.03 | 0.03 | 73 | 1007.4 |
| 20260509002501 | 74 | 168 | 6.0 | 11.0 | 0.00 | 0.03 | 0.03 | 73 | 1007.4 |
| 20260509002401 | 74 | 186 | 6.0 | 11.0 | 0.00 | 0.03 | 0.03 | 72 | 1007.3 |
| 20260509002301 | 74 | 158 | 5.0 | 11.0 | 0.00 | 0.03 | 0.03 | 73 | 1007.3 |
| 20260509002201 | 74 | 165 | 5.0 | 11.0 | 0.00 | 0.03 | 0.03 | 72 | 1007.3 |
| 20260509002101 | 74 | 171 | 4.0 | 10.0 | 0.00 | 0.03 | 0.03 | 73 | 1007.3 |
| 20260509002001 | 74 | 169 | 4.0 | 10.0 | 0.00 | 0.03 | 0.03 | 72 | 1007.2 |
| 20260509001801 | 74 | 180 | 5.0 | 10.0 | 0.00 | 0.03 | 0.03 | 72 | 1007.2 |
| 20260509001701 | 74 | 176 | 5.0 | 10.0 | 0.00 | 0.03 | 0.03 | 72 | 1007.2 |
| 20260509001606 | 74 | 182 | 5.0 | 10.0 | 0.00 | 0.03 | 0.03 | 71 | 1006.5 |
| 20260509001601 | 74 | 182 | 6.0 | 10.0 | 0.00 | 0.03 | 0.03 | 71 | 1007.2 |
| 20260509001500 | 74 | 194 | 7.0 | 10.0 | 0.00 | 0.03 | 0.03 | 71 | 1007.1 |
| 20260509001401 | 74 | 169 | 6.0 | 10.0 | 0.00 | 0.03 | 0.03 | 71 | 1007.1 |
| 20260509001301 | 74 | 184 | 6.0 | 10.0 | 0.00 | 0.03 | 0.03 | 72 | 1007.0 |
| 20260509001201 | 74 | 178 | 6.0 | 10.0 | 0.00 | 0.03 | 0.03 | 72 | 1007.0 |
| 20260509001101 | 74 | 170 | 6.0 | 10.0 | 0.00 | 0.03 | 0.03 | 71 | 1006.9 |
| 20260509001001 | 75 | 184 | 5.0 | 10.0 | 0.00 | 0.03 | 0.03 | 71 | 1007.0 |
| 20260509000902 | 75 | 169 | 4.0 | 10.0 | 0.00 | 0.03 | 0.03 | 71 | 1007.0 |
| 20260509000801 | 75 | 164 | 5.0 | 10.0 | 0.00 | 0.03 | 0.03 | 71 | 1007.0 |
| 20260509000701 | 75 | 192 | 6.0 | 10.0 | 0.00 | 0.03 | 0.03 | 71 | 1007.0 |
| 20260509000600 | 75 | 188 | 6.0 | 10.0 | 0.00 | 0.03 | 0.03 | 71 | 1007.0 |
| 20260509000501 | 75 | 150 | 6.0 | 10.0 | 0.00 | 0.03 | 0.03 | 70 | 1006.9 |
| 20260509000403 | 75 | 182 | 4.0 | 9.0 | 0.00 | 0.03 | 0.03 | 70 | 1006.9 |
| 20260509000303 | 75 | 182 | 4.0 | 12.0 | 0.00 | 0.03 | 0.03 | 70 | 1007.0 |
| 20260509000200 | 75 | 180 | 4.0 | 12.0 | 0.00 | 0.03 | 0.03 | 70 | 1006.9 |
| 20260509000113 | 75 | 175 | 5.0 | 12.0 | 0.00 | 0.03 | 0.03 | 70 | 1006.3 |
| 20260509000002 | 75 | 170 | 4.0 | 12.0 | 0.00 | 0.03 | 0.03 | 70 | 1006.2 |
| 20260508235900 | 75 | 185 | 4.0 | 12.0 | 0.00 | 0.03 | 0.03 | 70 | 1007.0 |
| 20260508235800 | 76 | 159 | 4.0 | 12.0 | 0.00 | 0.03 | 0.03 | 70 | 1006.9 |
| 20260508235659 | 76 | 184 | 5.0 | 12.0 | 0.00 | 0.03 | 0.03 | 69 | 1006.9 |
| 20260508235601 | 76 | 175 | 5.0 | 12.0 | 0.00 | 0.03 | 0.03 | 69 | 1006.9 |
| 20260508235500 | 76 | 184 | 7.0 | 12.0 | 0.00 | 0.03 | 0.03 | 68 | 1007.0 |
| 20260508235259 | 76 | 179 | 7.0 | 12.0 | 0.00 | 0.03 | 0.03 | 68 | 1007.0 |
| 20260508235200 | 76 | 192 | 7.0 | 12.0 | 0.00 | 0.03 | 0.03 | 68 | 1006.9 |
| 20260508235100 | 76 | 140 | 7.0 | 12.0 | 0.00 | 0.03 | 0.03 | 68 | 1006.9 |
| 20260508235000 | 76 | 173 | 6.0 | 11.0 | 0.00 | 0.03 | 0.03 | 68 | 1006.8 |
| 20260508234900 | 76 | 182 | 6.0 | 11.0 | 0.00 | 0.03 | 0.03 | 68 | 1006.9 |
| 20260508234800 | 76 | 173 | 5.0 | 10.0 | 0.00 | 0.03 | 0.03 | 67 | 1006.9 |
| 20260508234700 | 76 | 169 | 5.0 | 10.0 | 0.00 | 0.03 | 0.03 | 68 | 1006.9 |
| 20260508234600 | 76 | 143 | 6.0 | 10.0 | 0.00 | 0.03 | 0.03 | 68 | 1006.9 |
| 20260508234559 | 76 | 143 | 5.0 | 10.0 | 0.00 | 0.03 | 0.03 | 68 | 1006.2 |
| 20260508234501 | 76 | 208 | 5.0 | 10.0 | 0.00 | 0.03 | 0.03 | 67 | 1006.2 |
| 20260508234400 | 76 | 177 | 6.0 | 10.0 | 0.00 | 0.03 | 0.03 | 67 | 1006.9 |
| 20260508234259 | 76 | 182 | 6.0 | 10.0 | 0.00 | 0.03 | 0.03 | 67 | 1006.9 |
| 20260508234200 | 77 | 159 | 6.0 | 12.0 | 0.00 | 0.03 | 0.03 | 67 | 1006.8 |
| 20260508234101 | 77 | 192 | 7.0 | 12.0 | 0.00 | 0.03 | 0.03 | 67 | 1006.8 |
| 20260508233659 | 77 | 180 | 5.0 | 12.0 | 0.00 | 0.03 | 0.03 | 67 | 1006.9 |
| 20260508233559 | 77 | 198 | 5.0 | 12.0 | 0.00 | 0.03 | 0.03 | 66 | 1006.9 |
| 20260508233500 | 77 | 184 | 6.0 | 12.0 | 0.00 | 0.03 | 0.03 | 66 | 1006.9 |
| 20260508233359 | 77 | 198 | 5.0 | 12.0 | 0.00 | 0.03 | 0.03 | 66 | 1006.9 |
| 20260508233300 | 77 | 146 | 5.0 | 12.0 | 0.00 | 0.03 | 0.03 | 66 | 1006.9 |
| 20260508233200 | 77 | 169 | 6.0 | 12.0 | 0.00 | 0.03 | 0.03 | 67 | 1007.0 |
| 20260508233100 | 77 | 163 | 6.0 | 12.0 | 0.00 | 0.03 | 0.03 | 67 | 1007.0 |
| 20260508233059 | 77 | 163 | 5.0 | 12.0 | 0.00 | 0.03 | 0.03 | 67 | 1006.3 |
| 20260508233000 | 77 | 159 | 6.0 | 12.0 | 0.00 | 0.03 | 0.03 | 67 | 1006.9 |
| 20260508232900 | 77 | 174 | 5.0 | 10.0 | 0.00 | 0.03 | 0.03 | 66 | 1007.0 |
| 20260508232800 | 77 | 179 | 5.0 | 10.0 | 0.00 | 0.03 | 0.03 | 66 | 1007.0 |
| 20260508232700 | 77 | 161 | 5.0 | 9.0 | 0.00 | 0.03 | 0.03 | 66 | 1006.9 |
| 20260508232459 | 77 | 184 | 3.0 | 8.0 | 0.00 | 0.03 | 0.03 | 67 | 1007.0 |
| 20260508232400 | 77 | 183 | 5.0 | 8.0 | 0.00 | 0.03 | 0.03 | 67 | 1007.0 |
| 20260508232300 | 77 | 178 | 5.0 | 8.0 | 0.00 | 0.03 | 0.03 | 66 | 1007.0 |
| 20260508232159 | 77 | 200 | 5.0 | 8.0 | 0.00 | 0.03 | 0.03 | 66 | 1007.0 |
| 20260508232100 | 77 | 194 | 6.0 | 8.0 | 0.00 | 0.03 | 0.03 | 66 | 1007.0 |
| 20260508232000 | 77 | 161 | 6.0 | 10.0 | 0.00 | 0.03 | 0.03 | 65 | 1007.1 |
| 20260508231859 | 77 | 163 | 6.0 | 10.0 | 0.00 | 0.03 | 0.03 | 66 | 1007.1 |
| 20260508231801 | 77 | 150 | 6.0 | 10.0 | 0.00 | 0.03 | 0.03 | 66 | 1007.1 |
| 20260508231600 | 77 | 178 | 5.0 | 10.0 | 0.00 | 0.03 | 0.03 | 66 | 1006.4 |
| 20260508231500 | 77 | 157 | 5.0 | 10.0 | 0.00 | 0.03 | 0.03 | 66 | 1007.2 |
| 20260508231400 | 77 | 173 | 5.0 | 10.0 | 0.00 | 0.03 | 0.03 | 66 | 1007.2 |
| 20260508231302 | 77 | 175 | 5.0 | 10.0 | 0.00 | 0.03 | 0.03 | 65 | 1007.2 |
| 20260508231200 | 77 | 181 | 5.0 | 10.0 | 0.00 | 0.03 | 0.03 | 65 | 1007.2 |
| 20260508231100 | 77 | 183 | 4.0 | 9.0 | 0.00 | 0.03 | 0.03 | 65 | 1007.2 |
| 20260508231000 | 77 | 201 | 6.0 | 11.0 | 0.00 | 0.03 | 0.03 | 65 | 1007.1 |
| 20260508230759 | 77 | 177 | 5.0 | 11.0 | 0.00 | 0.03 | 0.03 | 65 | 1007.2 |
| 20260508230659 | 77 | 183 | 5.0 | 11.0 | 0.00 | 0.03 | 0.03 | 66 | 1007.2 |
| 20260508230559 | 77 | 190 | 6.0 | 11.0 | 0.00 | 0.03 | 0.03 | 65 | 1007.2 |
| 20260508230459 | 77 | 174 | 6.0 | 11.0 | 0.00 | 0.03 | 0.03 | 65 | 1007.2 |
| 20260508230359 | 77 | 169 | 7.0 | 11.0 | 0.00 | 0.03 | 0.03 | 65 | 1007.2 |
| 20260508230300 | 77 | 175 | 6.0 | 12.0 | 0.00 | 0.03 | 0.03 | 65 | 1007.3 |
| 20260508230200 | 77 | 180 | 7.0 | 12.0 | 0.00 | 0.03 | 0.03 | 65 | 1007.3 |
| 20260508230100 | 77 | 157 | 5.0 | 12.0 | 0.00 | 0.03 | 0.03 | 65 | 1007.3 |
| 20260508230002 | 77 | 147 | 5.0 | 12.0 | 0.00 | 0.03 | 0.03 | 65 | 1007.2 |
| 20260508225900 | 77 | 168 | 6.0 | 12.0 | 0.00 | 0.03 | 0.03 | 65 | 1007.3 |
| 20260508225600 | 78 | 152 | 8.0 | 12.0 | 0.00 | 0.03 | 0.03 | 65 | 1007.3 |
| 20260508225500 | 78 | 130 | 8.0 | 12.0 | 0.00 | 0.03 | 0.03 | 64 | 1007.3 |
| 20260508225359 | 78 | 160 | 7.0 | 12.0 | 0.00 | 0.03 | 0.03 | 64 | 1007.2 |
| 20260508225300 | 78 | 142 | 6.0 | 10.0 | 0.00 | 0.03 | 0.03 | 64 | 1007.3 |
| 20260508225200 | 78 | 175 | 5.0 | 10.0 | 0.00 | 0.03 | 0.03 | 64 | 1007.3 |
| 20260508225000 | 78 | 178 | 7.0 | 12.0 | 0.00 | 0.03 | 0.03 | 64 | 1007.3 |
| 20260508224759 | 78 | 143 | 6.0 | 11.0 | 0.00 | 0.03 | 0.03 | 65 | 1007.3 |
| 20260508224701 | 78 | 189 | 6.0 | 11.0 | 0.00 | 0.03 | 0.03 | 65 | 1007.3 |
| 20260508224607 | 78 | 182 | 6.0 | 11.0 | 0.00 | 0.03 | 0.03 | 64 | 1006.5 |
| 20260508224600 | 78 | 182 | 7.0 | 11.0 | 0.00 | 0.03 | 0.03 | 64 | 1007.2 |
| 20260508224500 | 78 | 187 | 7.0 | 11.0 | 0.00 | 0.03 | 0.03 | 63 | 1007.3 |
| 20260508224400 | 78 | 184 | 8.0 | 11.0 | 0.00 | 0.03 | 0.03 | 63 | 1007.2 |
| 20260508224300 | 78 | 178 | 8.0 | 11.0 | 0.00 | 0.03 | 0.03 | 63 | 1007.3 |
| 20260508224200 | 78 | 180 | 9.0 | 11.0 | 0.00 | 0.03 | 0.03 | 64 | 1007.2 |
| 20260508224100 | 78 | 184 | 8.0 | 10.0 | 0.00 | 0.03 | 0.03 | 65 | 1007.2 |
| 20260508223959 | 78 | 182 | 7.0 | 10.0 | 0.00 | 0.03 | 0.03 | 65 | 1007.2 |
| 20260508223900 | 78 | 144 | 6.0 | 11.0 | 0.00 | 0.03 | 0.03 | 64 | 1007.2 |
| 20260508223800 | 78 | 189 | 7.0 | 12.0 | 0.00 | 0.03 | 0.03 | 63 | 1007.2 |
| 20260508223701 | 79 | 161 | 7.0 | 12.0 | 0.00 | 0.03 | 0.03 | 63 | 1007.3 |
| 20260508223600 | 79 | 188 | 7.0 | 12.0 | 0.00 | 0.03 | 0.03 | 63 | 1007.2 |
| 20260508223500 | 79 | 198 | 6.0 | 12.0 | 0.00 | 0.03 | 0.03 | 64 | 1007.2 |
| 20260508223400 | 79 | 154 | 5.0 | 12.0 | 0.00 | 0.03 | 0.03 | 64 | 1007.3 |
| 20260508223259 | 79 | 178 | 5.0 | 12.0 | 0.00 | 0.03 | 0.03 | 64 | 1007.3 |
| 20260508223100 | 79 | 175 | 8.0 | 12.0 | 0.00 | 0.03 | 0.03 | 63 | 1007.3 |
| 20260508223059 | 79 | 175 | 7.0 | 12.0 | 0.00 | 0.03 | 0.03 | 63 | 1006.6 |
| 20260508223000 | 79 | 161 | 8.0 | 12.0 | 0.00 | 0.03 | 0.03 | 64 | 1007.3 |
| 20260508222900 | 79 | 191 | 8.0 | 11.0 | 0.00 | 0.03 | 0.03 | 64 | 1007.3 |
| 20260508222800 | 79 | 155 | 8.0 | 11.0 | 0.00 | 0.03 | 0.03 | 63 | 1007.3 |
| 20260508222700 | 79 | 161 | 7.0 | 10.0 | 0.00 | 0.03 | 0.03 | 63 | 1007.2 |
| 20260508222600 | 79 | 158 | 6.0 | 10.0 | 0.00 | 0.03 | 0.03 | 64 | 1007.2 |
| 20260508222500 | 79 | 167 | 6.0 | 10.0 | 0.00 | 0.03 | 0.03 | 64 | 1007.2 |
| 20260508222400 | 79 | 173 | 7.0 | 12.0 | 0.00 | 0.03 | 0.03 | 64 | 1007.2 |
| 20260508222300 | 79 | 152 | 7.0 | 12.0 | 0.00 | 0.03 | 0.03 | 64 | 1007.3 |
| 20260508222201 | 79 | 194 | 7.0 | 12.0 | 0.00 | 0.03 | 0.03 | 64 | 1007.2 |
| 20260508221959 | 79 | 128 | 8.0 | 11.0 | 0.00 | 0.03 | 0.03 | 64 | 1007.2 |
| 20260508221859 | 79 | 171 | 8.0 | 11.0 | 0.00 | 0.03 | 0.03 | 64 | 1007.2 |
| 20260508221701 | 79 | 152 | 7.0 | 11.0 | 0.00 | 0.03 | 0.03 | 64 | 1007.2 |
| 20260508221600 | 79 | 136 | 8.0 | 11.0 | 0.00 | 0.03 | 0.03 | 63 | 1006.6 |
| 20260508221459 | 79 | 145 | 7.0 | 11.0 | 0.00 | 0.03 | 0.03 | 64 | 1007.2 |
| 20260508221400 | 79 | 160 | 5.0 | 11.0 | 0.00 | 0.03 | 0.03 | 64 | 1007.3 |
| 20260508221300 | 79 | 205 | 5.0 | 12.0 | 0.00 | 0.03 | 0.03 | 64 | 1007.3 |
| 20260508221200 | 79 | 150 | 5.0 | 12.0 | 0.00 | 0.03 | 0.03 | 63 | 1007.1 |
| 20260508221100 | 79 | 184 | 6.0 | 12.0 | 0.00 | 0.03 | 0.03 | 63 | 1007.2 |
| 20260508221000 | 79 | 196 | 6.0 | 12.0 | 0.00 | 0.03 | 0.03 | 64 | 1007.2 |
| 20260508220901 | 79 | 192 | 5.0 | 12.0 | 0.00 | 0.03 | 0.03 | 64 | 1007.1 |
| 20260508220700 | 79 | 205 | 6.0 | 12.0 | 0.00 | 0.03 | 0.03 | 62 | 1007.1 |
| 20260508220400 | 79 | 190 | 6.0 | 10.0 | 0.00 | 0.03 | 0.03 | 63 | 1007.2 |
| 20260508220100 | 79 | 183 | 6.0 | 14.0 | 0.00 | 0.03 | 0.03 | 62 | 1006.5 |
| 20260508220000 | 79 | 198 | 6.0 | 14.0 | 0.00 | 0.03 | 0.03 | 62 | 1007.2 |
| 20260508215900 | 79 | 176 | 6.0 | 14.0 | 0.00 | 0.03 | 0.03 | 62 | 1007.2 |
| 20260508215759 | 79 | 172 | 7.0 | 14.0 | 0.00 | 0.03 | 0.03 | 62 | 1007.2 |
| 20260508215559 | 79 | 194 | 9.0 | 14.0 | 0.00 | 0.03 | 0.03 | 62 | 1007.2 |
| 20260508215500 | 79 | 179 | 8.0 | 14.0 | 0.00 | 0.03 | 0.03 | 62 | 1007.2 |
| 20260508215402 | 79 | 193 | 7.0 | 13.0 | 0.00 | 0.03 | 0.03 | 62 | 1007.2 |
| 20260508215200 | 79 | 142 | 6.0 | 11.0 | 0.00 | 0.03 | 0.03 | 63 | 1007.2 |
| 20260508215100 | 79 | 167 | 6.0 | 11.0 | 0.00 | 0.03 | 0.03 | 62 | 1007.2 |
| 20260508215001 | 79 | 158 | 5.0 | 11.0 | 0.00 | 0.03 | 0.03 | 62 | 1007.2 |
| 20260508214800 | 79 | 145 | 7.0 | 11.0 | 0.00 | 0.03 | 0.03 | 62 | 1007.3 |
| 20260508214601 | 79 | 140 | 6.0 | 11.0 | 0.00 | 0.03 | 0.03 | 63 | 1007.3 |
| 20260508214501 | 79 | 169 | 5.0 | 10.0 | 0.00 | 0.03 | 0.03 | 63 | 1007.3 |
| 20260508214400 | 79 | 142 | 5.0 | 10.0 | 0.00 | 0.03 | 0.03 | 64 | 1007.2 |
| 20260508214259 | 79 | 169 | 3.0 | 10.0 | 0.00 | 0.03 | 0.03 | 63 | 1007.3 |
| 20260508214200 | 79 | 150 | 3.0 | 10.0 | 0.00 | 0.03 | 0.03 | 62 | 1007.3 |
| 20260508214100 | 79 | 157 | 4.0 | 10.0 | 0.00 | 0.03 | 0.03 | 62 | 1007.2 |
| 20260508214001 | 79 | 146 | 5.0 | 15.0 | 0.00 | 0.03 | 0.03 | 62 | 1007.2 |
| 20260508213900 | 79 | 142 | 5.0 | 15.0 | 0.00 | 0.03 | 0.03 | 62 | 1007.3 |
| 20260508213800 | 79 | 196 | 5.0 | 15.0 | 0.00 | 0.03 | 0.03 | 62 | 1007.3 |
| 20260508213700 | 79 | 177 | 4.0 | 15.0 | 0.00 | 0.03 | 0.03 | 60 | 1007.3 |
| 20260508213600 | 79 | 163 | 5.0 | 15.0 | 0.00 | 0.03 | 0.03 | 60 | 1007.3 |
| 20260508213501 | 79 | 194 | 7.0 | 15.0 | 0.00 | 0.03 | 0.03 | 60 | 1007.3 |
| 20260508213400 | 79 | 175 | 8.0 | 15.0 | 0.00 | 0.03 | 0.03 | 60 | 1007.3 |
| 20260508213300 | 79 | 175 | 8.0 | 15.0 | 0.00 | 0.03 | 0.03 | 60 | 1007.3 |
| 20260508213103 | 79 | 175 | 7.0 | 14.0 | 0.00 | 0.03 | 0.03 | 60 | 1006.7 |
| 20260508213100 | 79 | 175 | 7.0 | 14.0 | 0.00 | 0.03 | 0.03 | 60 | 1007.4 |
| 20260508213000 | 79 | 192 | 7.0 | 14.0 | 0.00 | 0.03 | 0.03 | 60 | 1007.5 |
| 20260508212901 | 79 | 180 | 7.0 | 11.0 | 0.00 | 0.03 | 0.03 | 60 | 1007.5 |
| 20260508212800 | 79 | 149 | 5.0 | 10.0 | 0.00 | 0.03 | 0.03 | 62 | 1007.5 |
| 20260508212700 | 79 | 178 | 5.0 | 10.0 | 0.00 | 0.03 | 0.03 | 62 | 1007.5 |
| 20260508212601 | 79 | 169 | 5.0 | 10.0 | 0.00 | 0.03 | 0.03 | 62 | 1007.4 |
| 20260508212501 | 79 | 143 | 5.0 | 10.0 | 0.00 | 0.03 | 0.03 | 61 | 1007.5 |
| 20260508212402 | 79 | 169 | 5.0 | 10.0 | 0.00 | 0.03 | 0.03 | 61 | 1007.5 |
| 20260508212259 | 79 | 132 | 6.0 | 10.0 | 0.00 | 0.03 | 0.03 | 61 | 1007.6 |
| 20260508212200 | 79 | 142 | 5.0 | 10.0 | 0.00 | 0.03 | 0.03 | 61 | 1007.6 |
| 20260508212102 | 79 | 178 | 5.0 | 10.0 | 0.00 | 0.03 | 0.03 | 61 | 1007.6 |
| 20260508211802 | 80 | 180 | 5.0 | 10.0 | 0.00 | 0.03 | 0.03 | 59 | 1007.6 |
| 20260508211700 | 80 | 175 | 6.0 | 10.0 | 0.00 | 0.03 | 0.03 | 59 | 1007.9 |
| 20260508211601 | 80 | 186 | 8.0 | 10.0 | 0.00 | 0.03 | 0.03 | 59 | 1007.9 |
| 20260508211559 | 80 | 186 | 7.0 | 10.0 | 0.00 | 0.03 | 0.03 | 59 | 1007.1 |
| 20260508211400 | 80 | 203 | 7.0 | 10.0 | 0.00 | 0.03 | 0.03 | 59 | 1007.9 |
| 20260508211301 | 80 | 195 | 6.0 | 12.0 | 0.00 | 0.03 | 0.03 | 58 | 1007.9 |
| 20260508211001 | 80 | 176 | 3.0 | 12.0 | 0.00 | 0.03 | 0.03 | 61 | 1007.9 |
| 20260508210859 | 80 | 175 | 5.0 | 12.0 | 0.00 | 0.03 | 0.03 | 61 | 1007.9 |
| 20260508210800 | 80 | 192 | 5.0 | 17.0 | 0.00 | 0.03 | 0.03 | 61 | 1007.9 |
| 20260508210700 | 80 | 220 | 7.0 | 17.0 | 0.00 | 0.03 | 0.03 | 60 | 1007.9 |
| 20260508210600 | 80 | 202 | 6.0 | 17.0 | 0.00 | 0.03 | 0.03 | 60 | 1008.0 |
| 20260508210501 | 80 | 205 | 7.0 | 17.0 | 0.00 | 0.03 | 0.03 | 60 | 1008.0 |
| 20260508210302 | 79 | 188 | 6.0 | 17.0 | 0.00 | 0.03 | 0.03 | 61 | 1008.0 |
| 20260508210159 | 79 | 182 | 7.0 | 17.0 | 0.00 | 0.03 | 0.03 | 61 | 1008.1 |
| 20260508210100 | 79 | 157 | 7.0 | 17.0 | 0.00 | 0.03 | 0.03 | 60 | 1007.4 |
| 20260508205859 | 80 | 174 | 8.0 | 17.0 | 0.00 | 0.03 | 0.03 | 62 | 1008.2 |
| 20260508205759 | 79 | 189 | 6.0 | 12.0 | 0.00 | 0.03 | 0.03 | 62 | 1008.2 |
| 20260508205658 | 79 | 176 | 5.0 | 11.0 | 0.00 | 0.03 | 0.03 | 62 | 1008.2 |
| 20260508205459 | 79 | 198 | 6.0 | 12.0 | 0.00 | 0.03 | 0.03 | 62 | 1008.1 |
| 20260508205401 | 79 | 156 | 6.0 | 12.0 | 0.00 | 0.03 | 0.03 | 61 | 1008.2 |
| 20260508205259 | 79 | 198 | 6.0 | 12.0 | 0.00 | 0.03 | 0.03 | 63 | 1008.2 |
| 20260508205158 | 79 | 188 | 5.0 | 12.0 | 0.00 | 0.03 | 0.03 | 63 | 1008.4 |
| 20260508205059 | 79 | 198 | 6.0 | 12.0 | 0.00 | 0.03 | 0.03 | 62 | 1008.3 |
| 20260508204859 | 79 | 171 | 7.0 | 12.0 | 0.00 | 0.03 | 0.03 | 60 | 1008.4 |
| 20260508204800 | 79 | 161 | 8.0 | 12.0 | 0.00 | 0.03 | 0.03 | 61 | 1008.4 |
| 20260508204700 | 79 | 189 | 8.0 | 14.0 | 0.00 | 0.03 | 0.03 | 61 | 1008.5 |
| 20260508204559 | 79 | 142 | 8.0 | 14.0 | 0.00 | 0.03 | 0.03 | 62 | 1008.5 |
| 20260508204459 | 79 | 185 | 8.0 | 14.0 | 0.00 | 0.03 | 0.03 | 60 | 1008.5 |
| 20260508204359 | 79 | 176 | 9.0 | 14.0 | 0.00 | 0.03 | 0.03 | 60 | 1008.5 |
| 20260508204300 | 79 | 160 | 9.0 | 14.0 | 0.00 | 0.03 | 0.03 | 60 | 1008.6 |
| 20260508204200 | 79 | 166 | 9.0 | 14.0 | 0.00 | 0.03 | 0.03 | 63 | 1008.5 |
| 20260508204100 | 79 | 166 | 8.0 | 14.0 | 0.00 | 0.03 | 0.03 | 63 | 1008.6 |
| 20260508204000 | 79 | 161 | 8.0 | 14.0 | 0.00 | 0.03 | 0.03 | 60 | 1008.6 |
| 20260508203858 | 79 | 146 | 8.0 | 14.0 | 0.00 | 0.03 | 0.03 | 62 | 1008.6 |
| 20260508203701 | 79 | 177 | 5.0 | 13.0 | 0.00 | 0.03 | 0.03 | 62 | 1008.5 |
| 20260508203459 | 79 | 162 | 6.0 | 11.0 | 0.00 | 0.03 | 0.03 | 64 | 1008.6 |
| 20260508203359 | 79 | 208 | 7.0 | 11.0 | 0.00 | 0.03 | 0.03 | 62 | 1008.6 |
| 20260508203300 | 79 | 184 | 8.0 | 11.0 | 0.00 | 0.03 | 0.03 | 61 | 1008.5 |
| 20260508203100 | 79 | 148 | 7.0 | 12.0 | 0.00 | 0.03 | 0.03 | 61 | 1008.7 |
| 20260508203059 | 79 | 148 | 7.0 | 12.0 | 0.00 | 0.03 | 0.03 | 61 | 1008.1 |
| 20260508202900 | 79 | 137 | 4.0 | 11.0 | 0.00 | 0.03 | 0.03 | 64 | 1008.7 |
| 20260508202800 | 79 | 171 | 5.0 | 11.0 | 0.00 | 0.03 | 0.03 | 61 | 1008.7 |
| 20260508202659 | 78 | 195 | 7.0 | 11.0 | 0.00 | 0.03 | 0.03 | 62 | 1008.7 |
| 20260508202359 | 78 | 173 | 7.0 | 16.0 | 0.00 | 0.03 | 0.03 | 62 | 1008.8 |
| 20260508202300 | 78 | 172 | 7.0 | 16.0 | 0.00 | 0.03 | 0.03 | 61 | 1008.8 |
| 20260508202158 | 78 | 169 | 7.0 | 16.0 | 0.00 | 0.03 | 0.03 | 61 | 1008.8 |
| 20260508201959 | 78 | 208 | 6.0 | 16.0 | 0.00 | 0.03 | 0.03 | 61 | 1008.9 |
| 20260508201859 | 78 | 158 | 7.0 | 16.0 | 0.00 | 0.03 | 0.03 | 62 | 1008.9 |
| 20260508201659 | 78 | 159 | 10.0 | 16.0 | 0.00 | 0.03 | 0.03 | 62 | 1008.9 |
| 20260508201610 | 78 | 150 | 9.0 | 16.0 | 0.00 | 0.03 | 0.03 | 62 | 1008.2 |
| 20260508201600 | 78 | 150 | 9.0 | 16.0 | 0.00 | 0.03 | 0.03 | 62 | 1008.8 |
| 20260508201459 | 78 | 180 | 9.0 | 14.0 | 0.00 | 0.03 | 0.03 | 62 | 1008.8 |
| 20260508201359 | 78 | 157 | 9.0 | 14.0 | 0.00 | 0.03 | 0.03 | 61 | 1008.8 |
| 20260508201259 | 78 | 173 | 9.0 | 14.0 | 0.00 | 0.03 | 0.03 | 63 | 1008.9 |
| 20260508201200 | 78 | 166 | 8.0 | 14.0 | 0.00 | 0.03 | 0.03 | 63 | 1008.8 |
| 20260508201101 | 78 | 172 | 7.0 | 14.0 | 0.00 | 0.03 | 0.03 | 63 | 1008.9 |
| 20260508200859 | 78 | 151 | 6.0 | 14.0 | 0.00 | 0.03 | 0.03 | 63 | 1008.9 |
| 20260508200800 | 77 | 153 | 5.0 | 14.0 | 0.00 | 0.03 | 0.03 | 63 | 1008.9 |
| 20260508200658 | 77 | 185 | 6.0 | 14.0 | 0.00 | 0.03 | 0.03 | 63 | 1009.0 |
| 20260508200600 | 77 | 180 | 7.0 | 17.0 | 0.00 | 0.03 | 0.03 | 63 | 1009.1 |
| 20260508200500 | 77 | 193 | 7.0 | 17.0 | 0.00 | 0.03 | 0.03 | 61 | 1009.0 |
| 20260508200400 | 78 | 182 | 6.0 | 17.0 | 0.00 | 0.03 | 0.03 | 61 | 1009.1 |
| 20260508200258 | 78 | 183 | 5.0 | 17.0 | 0.00 | 0.03 | 0.03 | 61 | 1009.1 |
| 20260508200159 | 78 | 175 | 6.0 | 17.0 | 0.00 | 0.03 | 0.03 | 61 | 1009.1 |
| 20260508200107 | 78 | 161 | 7.0 | 17.0 | 0.00 | 0.03 | 0.03 | 60 | 1008.5 |
| 20260508200059 | 78 | 161 | 7.0 | 17.0 | 0.00 | 0.03 | 0.03 | 60 | 1009.1 |
| 20260508195959 | 78 | 169 | 8.0 | 17.0 | 0.00 | 0.03 | 0.03 | 59 | 1009.3 |
| 20260508195859 | 78 | 178 | 9.0 | 17.0 | 0.00 | 0.03 | 0.03 | 61 | 1009.1 |
| 20260508195759 | 78 | 190 | 8.0 | 16.0 | 0.00 | 0.03 | 0.03 | 61 | 1009.2 |
| 20260508195700 | 78 | 170 | 7.0 | 10.0 | 0.00 | 0.03 | 0.03 | 61 | 1009.2 |
| 20260508195559 | 78 | 169 | 7.0 | 11.0 | 0.00 | 0.03 | 0.03 | 60 | 1009.2 |
| 20260508195459 | 78 | 176 | 7.0 | 10.0 | 0.00 | 0.03 | 0.03 | 60 | 1009.3 |
| 20260508195400 | 78 | 190 | 7.0 | 10.0 | 0.00 | 0.03 | 0.03 | 62 | 1009.3 |
| 20260508195259 | 78 | 152 | 7.0 | 10.0 | 0.00 | 0.03 | 0.03 | 62 | 1009.2 |
| 20260508195200 | 78 | 172 | 6.0 | 12.0 | 0.00 | 0.03 | 0.03 | 64 | 1009.3 |
| 20260508195059 | 77 | 176 | 5.0 | 11.0 | 0.00 | 0.03 | 0.03 | 65 | 1009.4 |
| 20260508194959 | 77 | 182 | 4.0 | 11.0 | 0.00 | 0.03 | 0.03 | 64 | 1009.3 |
| 20260508194859 | 77 | 184 | 4.0 | 11.0 | 0.00 | 0.03 | 0.03 | 66 | 1009.5 |
| 20260508194759 | 77 | 182 | 5.0 | 11.0 | 0.00 | 0.03 | 0.03 | 64 | 1009.4 |
| 20260508194659 | 77 | 154 | 5.0 | 11.0 | 0.00 | 0.03 | 0.03 | 64 | 1009.4 |
| 20260508194601 | 77 | 188 | 6.0 | 11.0 | 0.00 | 0.03 | 0.03 | 62 | 1008.8 |
| 20260508194559 | 77 | 188 | 7.0 | 11.0 | 0.00 | 0.03 | 0.03 | 62 | 1009.5 |
| 20260508194458 | 77 | 187 | 8.0 | 11.0 | 0.00 | 0.03 | 0.03 | 62 | 1009.5 |
| 20260508194359 | 77 | 192 | 8.0 | 12.0 | 0.00 | 0.03 | 0.03 | 62 | 1009.5 |
| 20260508194259 | 77 | 195 | 7.0 | 10.0 | 0.00 | 0.03 | 0.03 | 62 | 1009.5 |
| 20260508194200 | 77 | 153 | 6.0 | 10.0 | 0.00 | 0.03 | 0.03 | 63 | 1009.5 |
| 20260508194100 | 77 | 169 | 6.0 | 9.0 | 0.00 | 0.03 | 0.03 | 63 | 1009.5 |
| 20260508194000 | 76 | 181 | 6.0 | 9.0 | 0.00 | 0.03 | 0.03 | 63 | 1009.6 |
| 20260508193859 | 76 | 175 | 6.0 | 9.0 | 0.00 | 0.03 | 0.03 | 65 | 1009.6 |
| 20260508193759 | 76 | 173 | 6.0 | 9.0 | 0.00 | 0.03 | 0.03 | 63 | 1009.5 |
| 20260508193700 | 76 | 194 | 6.0 | 9.0 | 0.00 | 0.03 | 0.03 | 67 | 1009.7 |
| 20260508193559 | 76 | 209 | 5.0 | 9.0 | 0.00 | 0.03 | 0.03 | 66 | 1009.6 |
| 20260508193358 | 75 | 143 | 5.0 | 8.0 | 0.00 | 0.03 | 0.03 | 66 | 1009.6 |
| 20260508193300 | 75 | 164 | 5.0 | 8.0 | 0.00 | 0.03 | 0.03 | 66 | 1009.6 |
| 20260508193110 | 75 | 154 | 5.0 | 8.0 | 0.00 | 0.03 | 0.03 | 64 | 1009.1 |
| 20260508193059 | 75 | 154 | 5.0 | 8.0 | 0.00 | 0.03 | 0.03 | 64 | 1009.7 |
| 20260508192959 | 75 | 158 | 5.0 | 8.0 | 0.00 | 0.03 | 0.03 | 64 | 1009.7 |
| 20260508192900 | 75 | 139 | 4.0 | 8.0 | 0.00 | 0.03 | 0.03 | 66 | 1009.7 |
| 20260508192800 | 75 | 142 | 3.0 | 7.0 | 0.00 | 0.03 | 0.03 | 65 | 1009.8 |
| 20260508192659 | 75 | 142 | 3.0 | 7.0 | 0.00 | 0.03 | 0.03 | 65 | 1009.8 |
| 20260508192559 | 75 | 150 | 3.0 | 7.0 | 0.00 | 0.03 | 0.03 | 66 | 1009.8 |
| 20260508192459 | 75 | 173 | 3.0 | 7.0 | 0.00 | 0.03 | 0.03 | 64 | 1009.9 |
| 20260508192358 | 75 | 165 | 3.0 | 7.0 | 0.00 | 0.03 | 0.03 | 64 | 1009.9 |
| 20260508192300 | 75 | 164 | 3.0 | 7.0 | 0.00 | 0.03 | 0.03 | 63 | 1009.9 |
| 20260508192159 | 75 | 175 | 4.0 | 7.0 | 0.00 | 0.03 | 0.03 | 63 | 1009.9 |
| 20260508192059 | 75 | 167 | 4.0 | 7.0 | 0.00 | 0.03 | 0.03 | 64 | 1009.9 |
| 20260508191958 | 75 | 152 | 4.0 | 7.0 | 0.00 | 0.03 | 0.03 | 64 | 1009.9 |
| 20260508191858 | 75 | 150 | 3.0 | 7.0 | 0.00 | 0.03 | 0.03 | 63 | 1009.9 |
| 20260508191600 | 75 | 212 | 3.0 | 9.0 | 0.00 | 0.03 | 0.03 | 61 | 1009.9 |
| 20260508191558 | 75 | 212 | 2.0 | 9.0 | 0.00 | 0.03 | 0.03 | 61 | 1009.2 |
| 20260508191459 | 75 | 193 | 3.0 | 9.0 | 0.00 | 0.03 | 0.03 | 62 | 1009.9 |
| 20260508191359 | 76 | 222 | 4.0 | 9.0 | 0.00 | 0.03 | 0.03 | 62 | 1009.9 |
| 20260508191300 | 76 | 167 | 5.0 | 9.0 | 0.00 | 0.03 | 0.03 | 63 | 1009.9 |
| 20260508191159 | 76 | 153 | 5.0 | 9.0 | 0.00 | 0.03 | 0.03 | 63 | 1009.9 |
| 20260508190958 | 76 | 165 | 5.0 | 9.0 | 0.00 | 0.03 | 0.03 | 62 | 1009.9 |
| 20260508190859 | 76 | 178 | 6.0 | 9.0 | 0.00 | 0.03 | 0.03 | 62 | 1009.9 |
| 20260508190800 | 75 | 180 | 5.0 | 10.0 | 0.00 | 0.03 | 0.03 | 63 | 1009.9 |
| 20260508190701 | 75 | 191 | 3.0 | 8.0 | 0.00 | 0.03 | 0.03 | 64 | 1009.9 |
| 20260508190559 | 75 | 167 | 4.0 | 8.0 | 0.00 | 0.03 | 0.03 | 64 | 1009.8 |
| 20260508190500 | 75 | 140 | 6.0 | 8.0 | 0.00 | 0.03 | 0.03 | 64 | 1009.9 |
| 20260508190359 | 75 | 132 | 5.0 | 9.0 | 0.00 | 0.03 | 0.03 | 63 | 1009.9 |
| 20260508190259 | 75 | 146 | 5.0 | 9.0 | 0.00 | 0.03 | 0.03 | 62 | 1009.9 |
| 20260508190200 | 75 | 158 | 5.0 | 7.0 | 0.00 | 0.03 | 0.03 | 62 | 1009.9 |
| 20260508190100 | 75 | 170 | 6.0 | 7.0 | 0.00 | 0.03 | 0.03 | 62 | 1009.9 |
| 20260508185959 | 75 | 165 | 6.0 | 9.0 | 0.00 | 0.03 | 0.03 | 62 | 1009.8 |
| 20260508185858 | 75 | 173 | 4.0 | 9.0 | 0.00 | 0.03 | 0.03 | 63 | 1009.9 |
| 20260508185758 | 75 | 211 | 2.0 | 9.0 | 0.00 | 0.03 | 0.03 | 66 | 1009.9 |
| 20260508185558 | 75 | 199 | 3.0 | 9.0 | 0.00 | 0.03 | 0.03 | 65 | 1009.8 |
| 20260508185459 | 75 | 198 | 4.0 | 9.0 | 0.00 | 0.03 | 0.03 | 65 | 1009.8 |
| 20260508185359 | 75 | 201 | 5.0 | 9.0 | 0.00 | 0.03 | 0.03 | 65 | 1009.9 |
| 20260508185158 | 75 | 177 | 4.0 | 9.0 | 0.00 | 0.03 | 0.03 | 66 | 1009.8 |
| 20260508185058 | 74 | 178 | 5.0 | 8.0 | 0.00 | 0.03 | 0.03 | 63 | 1009.9 |
| 20260508184959 | 74 | 209 | 6.0 | 8.0 | 0.00 | 0.03 | 0.03 | 63 | 1009.9 |
| 20260508184858 | 74 | 182 | 6.0 | 8.0 | 0.00 | 0.03 | 0.03 | 63 | 1010.0 |
| 20260508184800 | 74 | 171 | 5.0 | 8.0 | 0.00 | 0.03 | 0.03 | 65 | 1009.9 |
| 20260508184659 | 74 | 159 | 4.0 | 8.0 | 0.00 | 0.03 | 0.03 | 65 | 1010.0 |
| 20260508184609 | 74 | 177 | 4.0 | 10.0 | 0.00 | 0.03 | 0.03 | 64 | 1009.4 |
| 20260508184459 | 74 | 166 | 6.0 | 10.0 | 0.00 | 0.03 | 0.03 | 64 | 1010.0 |
| 20260508184259 | 74 | 146 | 4.0 | 10.0 | 0.00 | 0.03 | 0.03 | 65 | 1010.1 |
| 20260508184159 | 74 | 199 | 3.0 | 10.0 | 0.00 | 0.03 | 0.03 | 67 | 1010.1 |
| 20260508184059 | 74 | 235 | 5.0 | 10.0 | 0.00 | 0.03 | 0.03 | 65 | 1010.1 |
| 20260508183958 | 74 | 173 | 5.0 | 10.0 | 0.00 | 0.03 | 0.03 | 65 | 1010.1 |
| 20260508183859 | 74 | 167 | 5.0 | 10.0 | 0.00 | 0.03 | 0.03 | 65 | 1010.1 |
| 20260508183758 | 74 | 161 | 6.0 | 10.0 | 0.00 | 0.03 | 0.03 | 64 | 1010.1 |
| 20260508183659 | 74 | 163 | 6.0 | 10.0 | 0.00 | 0.03 | 0.03 | 64 | 1010.1 |
| 20260508183559 | 74 | 153 | 5.0 | 10.0 | 0.00 | 0.03 | 0.03 | 63 | 1010.2 |
| 20260508183459 | 75 | 205 | 5.0 | 10.0 | 0.00 | 0.03 | 0.03 | 63 | 1010.2 |
| 20260508183358 | 75 | 168 | 5.0 | 10.0 | 0.00 | 0.03 | 0.03 | 65 | 1010.3 |
| 20260508183259 | 75 | 200 | 5.0 | 10.0 | 0.00 | 0.03 | 0.03 | 65 | 1010.3 |
| 20260508183159 | 75 | 159 | 5.0 | 10.0 | 0.00 | 0.03 | 0.03 | 64 | 1010.3 |
| 20260508183106 | 75 | 155 | 4.0 | 10.0 | 0.00 | 0.03 | 0.03 | 68 | 1009.7 |
| 20260508183100 | 75 | 155 | 5.0 | 10.0 | 0.00 | 0.03 | 0.03 | 68 | 1010.3 |
| 20260508182958 | 74 | 154 | 5.0 | 10.0 | 0.00 | 0.03 | 0.03 | 68 | 1010.3 |
| 20260508182858 | 74 | 152 | 6.0 | 9.0 | 0.00 | 0.03 | 0.03 | 68 | 1010.3 |
| 20260508182659 | 74 | 161 | 7.0 | 9.0 | 0.00 | 0.03 | 0.03 | 67 | 1010.3 |
| 20260508182558 | 74 | 128 | 6.0 | 9.0 | 0.00 | 0.03 | 0.03 | 67 | 1010.3 |
| 20260508182458 | 74 | 153 | 5.0 | 9.0 | 0.00 | 0.03 | 0.03 | 68 | 1010.4 |
| 20260508182357 | 74 | 153 | 5.0 | 9.0 | 0.00 | 0.03 | 0.03 | 67 | 1010.5 |
| 20260508182258 | 74 | 194 | 5.0 | 9.0 | 0.00 | 0.03 | 0.03 | 67 | 1010.5 |
| 20260508182158 | 73 | 161 | 5.0 | 9.0 | 0.00 | 0.03 | 0.03 | 67 | 1010.5 |
| 20260508182058 | 73 | 159 | 4.0 | 9.0 | 0.00 | 0.03 | 0.03 | 66 | 1010.6 |
| 20260508181959 | 74 | 194 | 4.0 | 9.0 | 0.00 | 0.03 | 0.03 | 64 | 1010.6 |
| 20260508181757 | 74 | 197 | 5.0 | 9.0 | 0.00 | 0.03 | 0.03 | 64 | 1010.6 |
| 20260508181600 | 74 | 192 | 3.0 | 9.0 | 0.00 | 0.03 | 0.03 | 65 | 1010.0 |
| 20260508181559 | 74 | 192 | 4.0 | 9.0 | 0.00 | 0.03 | 0.03 | 65 | 1010.6 |
| 20260508181458 | 74 | 152 | 3.0 | 8.0 | 0.00 | 0.03 | 0.03 | 64 | 1010.6 |
| 20260508181359 | 74 | 181 | 4.0 | 8.0 | 0.00 | 0.03 | 0.03 | 64 | 1010.5 |
| 20260508181258 | 74 | 161 | 4.0 | 9.0 | 0.00 | 0.03 | 0.03 | 64 | 1010.6 |
| 20260508181159 | 74 | 142 | 4.0 | 9.0 | 0.00 | 0.03 | 0.03 | 65 | 1010.6 |
| 20260508181059 | 74 | 162 | 3.0 | 8.0 | 0.00 | 0.03 | 0.03 | 63 | 1010.7 |
| 20260508180958 | 74 | 204 | 4.0 | 9.0 | 0.00 | 0.03 | 0.03 | 64 | 1010.7 |
| 20260508180859 | 74 | 154 | 4.0 | 9.0 | 0.00 | 0.03 | 0.03 | 64 | 1010.6 |
| 20260508180758 | 74 | 186 | 4.0 | 9.0 | 0.00 | 0.03 | 0.03 | 67 | 1010.7 |
| 20260508180658 | 74 | 126 | 4.0 | 9.0 | 0.00 | 0.03 | 0.03 | 69 | 1010.6 |
| 20260508180558 | 74 | 149 | 4.0 | 11.0 | 0.00 | 0.03 | 0.03 | 69 | 1010.6 |
| 20260508180458 | 74 | 117 | 5.0 | 11.0 | 0.00 | 0.03 | 0.03 | 67 | 1010.6 |
| 20260508180359 | 74 | 120 | 5.0 | 11.0 | 0.00 | 0.03 | 0.03 | 67 | 1010.6 |
| 20260508180258 | 74 | 140 | 6.0 | 11.0 | 0.00 | 0.03 | 0.03 | 66 | 1010.6 |
| 20260508180159 | 74 | 157 | 6.0 | 11.0 | 0.00 | 0.03 | 0.03 | 66 | 1010.6 |
| 20260508180100 | 74 | 206 | 6.0 | 11.0 | 0.00 | 0.03 | 0.03 | 65 | 1010.1 |
| 20260508180002 | 74 | 166 | 6.0 | 11.0 | 0.00 | 0.03 | 0.03 | 67 | 1010.8 |
| 20260508175900 | 74 | 198 | 5.0 | 11.0 | 0.00 | 0.03 | 0.03 | 67 | 1010.9 |
| 20260508175800 | 74 | 133 | 4.0 | 10.0 | 0.00 | 0.03 | 0.03 | 70 | 1010.7 |
| 20260508175700 | 74 | 136 | 3.0 | 10.0 | 0.00 | 0.03 | 0.03 | 72 | 1010.8 |
| 20260508175600 | 74 | 142 | 5.0 | 10.0 | 0.00 | 0.03 | 0.03 | 72 | 1010.9 |
| 20260508175501 | 74 | 108 | 4.0 | 10.0 | 0.00 | 0.03 | 0.03 | 68 | 1010.9 |
| 20260508175359 | 74 | 140 | 5.0 | 9.0 | 0.00 | 0.03 | 0.03 | 68 | 1011.0 |
| 20260508175300 | 73 | 174 | 6.0 | 9.0 | 0.00 | 0.03 | 0.03 | 69 | 1011.0 |
| 20260508175200 | 73 | 173 | 5.0 | 9.0 | 0.00 | 0.03 | 0.03 | 69 | 1011.1 |
| 20260508175000 | 73 | 200 | 2.0 | 9.0 | 0.00 | 0.03 | 0.03 | 71 | 1011.2 |
| 20260508174900 | 73 | 140 | 1.0 | 10.0 | 0.00 | 0.03 | 0.03 | 71 | 1011.2 |
| 20260508174800 | 73 | 229 | 2.0 | 10.0 | 0.00 | 0.03 | 0.03 | 69 | 1011.2 |
| 20260508174659 | 73 | 229 | 4.0 | 10.0 | 0.00 | 0.03 | 0.03 | 71 | 1011.3 |
| 20260508174607 | 73 | 205 | 5.0 | 10.0 | 0.00 | 0.03 | 0.03 | 70 | 1010.7 |
| 20260508174500 | 73 | 207 | 6.0 | 10.0 | 0.00 | 0.03 | 0.03 | 69 | 1011.4 |
| 20260508174359 | 73 | 154 | 7.0 | 10.0 | 0.00 | 0.03 | 0.03 | 70 | 1011.4 |
| 20260508174300 | 73 | 152 | 6.0 | 10.0 | 0.00 | 0.03 | 0.03 | 70 | 1011.4 |
| 20260508174201 | 72 | 181 | 6.0 | 10.0 | 0.00 | 0.03 | 0.03 | 71 | 1011.4 |
| 20260508174101 | 72 | 174 | 5.0 | 10.0 | 0.00 | 0.03 | 0.03 | 71 | 1011.5 |
| 20260508174000 | 72 | 146 | 5.0 | 10.0 | 0.00 | 0.03 | 0.03 | 71 | 1011.5 |
| 20260508173900 | 72 | 198 | 4.0 | 9.0 | 0.00 | 0.03 | 0.03 | 68 | 1011.5 |
| 20260508173759 | 72 | 257 | 5.0 | 9.0 | 0.00 | 0.03 | 0.03 | 69 | 1011.6 |
| 20260508173659 | 72 | 201 | 6.0 | 9.0 | 0.00 | 0.03 | 0.03 | 69 | 1011.6 |
| 20260508173600 | 72 | 186 | 6.0 | 9.0 | 0.00 | 0.03 | 0.03 | 67 | 1011.6 |
| 20260508173459 | 72 | 217 | 5.0 | 9.0 | 0.00 | 0.03 | 0.03 | 68 | 1011.6 |
| 20260508173359 | 72 | 200 | 4.0 | 10.0 | 0.00 | 0.03 | 0.03 | 68 | 1011.7 |
| 20260508173300 | 72 | 142 | 3.0 | 10.0 | 0.00 | 0.03 | 0.03 | 68 | 1011.6 |
| 20260508173159 | 73 | 184 | 5.0 | 10.0 | 0.00 | 0.03 | 0.03 | 69 | 1011.7 |
| 20260508173058 | 72 | 207 | 5.0 | 10.0 | 0.00 | 0.03 | 0.03 | 69 | 1011.2 |
| 20260508173000 | 73 | 196 | 7.0 | 10.0 | 0.00 | 0.03 | 0.03 | 69 | 1011.7 |
| 20260508172800 | 72 | 157 | 4.0 | 9.0 | 0.00 | 0.03 | 0.03 | 72 | 1011.8 |
| 20260508172700 | 72 | 146 | 4.0 | 9.0 | 0.00 | 0.03 | 0.03 | 72 | 1011.8 |
| 20260508172600 | 72 | 143 | 5.0 | 9.0 | 0.00 | 0.03 | 0.03 | 71 | 1011.9 |
| 20260508172500 | 72 | 136 | 5.0 | 9.0 | 0.00 | 0.03 | 0.03 | 74 | 1011.9 |
| 20260508172400 | 72 | 150 | 3.0 | 9.0 | 0.00 | 0.03 | 0.03 | 74 | 1011.9 |
| 20260508172300 | 72 | 169 | 3.0 | 9.0 | 0.00 | 0.03 | 0.03 | 73 | 1011.9 |
| 20260508172059 | 71 | 169 | 5.0 | 9.0 | 0.00 | 0.03 | 0.03 | 72 | 1011.9 |
| 20260508172000 | 71 | 159 | 5.0 | 9.0 | 0.00 | 0.03 | 0.03 | 72 | 1012.0 |
| 20260508171859 | 71 | 162 | 3.0 | 8.0 | 0.00 | 0.03 | 0.03 | 72 | 1012.0 |
| 20260508171659 | 71 | 206 | 3.0 | 8.0 | 0.00 | 0.03 | 0.03 | 70 | 1012.0 |
| 20260508171601 | 71 | 205 | 3.0 | 8.0 | 0.00 | 0.03 | 0.03 | 72 | 1011.5 |
| 20260508171559 | 71 | 205 | 3.0 | 8.0 | 0.00 | 0.03 | 0.03 | 72 | 1012.1 |
| 20260508171501 | 71 | 194 | 3.0 | 8.0 | 0.00 | 0.03 | 0.03 | 70 | 1012.0 |
| 20260508171400 | 71 | 189 | 4.0 | 8.0 | 0.00 | 0.03 | 0.03 | 71 | 1012.1 |
| 20260508171100 | 71 | 186 | 4.0 | 8.0 | 0.00 | 0.03 | 0.03 | 73 | 1012.2 |
| 20260508171000 | 71 | 192 | 3.0 | 8.0 | 0.00 | 0.03 | 0.03 | 74 | 1012.2 |
| 20260508170900 | 70 | 183 | 3.0 | 8.0 | 0.00 | 0.03 | 0.03 | 73 | 1012.3 |
| 20260508170700 | 70 | 165 | 4.0 | 8.0 | 0.00 | 0.03 | 0.03 | 72 | 1012.3 |
| 20260508170600 | 70 | 157 | 4.0 | 8.0 | 0.00 | 0.03 | 0.03 | 73 | 1012.4 |
| 20260508170500 | 70 | 179 | 5.0 | 8.0 | 0.00 | 0.03 | 0.03 | 73 | 1012.4 |
| 20260508170400 | 70 | 160 | 4.0 | 8.0 | 0.00 | 0.03 | 0.03 | 73 | 1012.5 |
| 20260508170259 | 70 | 142 | 2.0 | 8.0 | 0.00 | 0.03 | 0.03 | 73 | 1012.4 |
| 20260508170159 | 70 | 148 | 1.0 | 8.0 | 0.00 | 0.03 | 0.03 | 73 | 1012.4 |
| 20260508170059 | 70 | 200 | 2.0 | 8.0 | 0.00 | 0.03 | 0.03 | 74 | 1012.5 |
| 20260508165858 | 70 | 197 | 3.0 | 8.0 | 0.00 | 0.03 | 0.03 | 74 | 1012.6 |
| 20260508165758 | 70 | 173 | 5.0 | 8.0 | 0.00 | 0.03 | 0.03 | 74 | 1012.6 |
| 20260508165659 | 70 | 159 | 5.0 | 8.0 | 0.00 | 0.03 | 0.03 | 73 | 1012.6 |
| 20260508165600 | 70 | 162 | 5.0 | 9.0 | 0.00 | 0.03 | 0.03 | 74 | 1012.6 |
| 20260508165459 | 70 | 154 | 4.0 | 8.0 | 0.00 | 0.03 | 0.03 | 72 | 1012.7 |
| 20260508165259 | 69 | 180 | 4.0 | 8.0 | 0.00 | 0.03 | 0.03 | 74 | 1012.7 |
| 20260508164959 | 69 | 168 | 3.0 | 9.0 | 0.00 | 0.03 | 0.03 | 75 | 1012.6 |
| 20260508164758 | 69 | 205 | 4.0 | 10.0 | 0.00 | 0.03 | 0.03 | 76 | 1012.7 |
| 20260508164700 | 69 | 182 | 5.0 | 10.0 | 0.00 | 0.03 | 0.03 | 76 | 1012.7 |
| 20260508164605 | 69 | 198 | 5.0 | 10.0 | 0.00 | 0.03 | 0.03 | 75 | 1012.2 |
| 20260508164600 | 69 | 198 | 5.0 | 10.0 | 0.00 | 0.03 | 0.03 | 75 | 1012.7 |
| 20260508164459 | 69 | 198 | 5.0 | 10.0 | 0.00 | 0.03 | 0.03 | 75 | 1012.7 |
| 20260508164358 | 69 | 172 | 5.0 | 10.0 | 0.00 | 0.03 | 0.03 | 75 | 1012.8 |
| 20260508164259 | 69 | 198 | 5.0 | 10.0 | 0.00 | 0.03 | 0.03 | 74 | 1012.8 |
| 20260508164159 | 69 | 196 | 6.0 | 10.0 | 0.00 | 0.03 | 0.03 | 73 | 1012.8 |
| 20260508164100 | 69 | 177 | 6.0 | 11.0 | 0.00 | 0.03 | 0.03 | 73 | 1012.9 |
| 20260508164000 | 69 | 207 | 6.0 | 11.0 | 0.00 | 0.03 | 0.03 | 73 | 1012.8 |
| 20260508163859 | 69 | 181 | 6.0 | 11.0 | 0.00 | 0.03 | 0.03 | 73 | 1012.8 |
| 20260508163759 | 69 | 173 | 5.0 | 11.0 | 0.00 | 0.03 | 0.03 | 74 | 1012.8 |
| 20260508163659 | 69 | 199 | 5.0 | 11.0 | 0.00 | 0.03 | 0.03 | 74 | 1012.8 |
| 20260508163558 | 69 | 187 | 5.0 | 11.0 | 0.00 | 0.03 | 0.03 | 73 | 1012.8 |
| 20260508163500 | 69 | 186 | 6.0 | 11.0 | 0.00 | 0.03 | 0.03 | 73 | 1012.8 |
| 20260508163359 | 69 | 170 | 5.0 | 9.0 | 0.00 | 0.03 | 0.03 | 74 | 1012.8 |
| 20260508163300 | 69 | 178 | 4.0 | 9.0 | 0.00 | 0.03 | 0.03 | 74 | 1012.8 |
| 20260508163159 | 69 | 165 | 4.0 | 10.0 | 0.00 | 0.03 | 0.03 | 74 | 1012.9 |
| 20260508163117 | 69 | 198 | 4.0 | 10.0 | 0.00 | 0.03 | 0.03 | 72 | 1012.4 |
| 20260508163000 | 70 | 169 | 5.0 | 10.0 | 0.00 | 0.03 | 0.03 | 72 | 1012.9 |
| 20260508162859 | 70 | 187 | 3.0 | 10.0 | 0.00 | 0.03 | 0.03 | 74 | 1012.9 |
| 20260508162759 | 70 | 200 | 3.0 | 10.0 | 0.00 | 0.03 | 0.03 | 74 | 1013.0 |
| 20260508162700 | 70 | 198 | 3.0 | 10.0 | 0.00 | 0.03 | 0.03 | 73 | 1013.0 |
| 20260508162500 | 70 | 152 | 5.0 | 10.0 | 0.00 | 0.03 | 0.03 | 74 | 1013.0 |
| 20260508162359 | 70 | 184 | 6.0 | 10.0 | 0.00 | 0.03 | 0.03 | 73 | 1013.0 |
| 20260508162300 | 70 | 179 | 6.0 | 10.0 | 0.00 | 0.03 | 0.03 | 73 | 1013.0 |
| 20260508162200 | 70 | 188 | 6.0 | 9.0 | 0.00 | 0.03 | 0.03 | 75 | 1013.0 |
| 20260508162100 | 70 | 166 | 5.0 | 9.0 | 0.00 | 0.03 | 0.03 | 75 | 1013.0 |
| 20260508161900 | 70 | 172 | 4.0 | 9.0 | 0.00 | 0.03 | 0.03 | 75 | 1013.0 |
| 20260508161601 | 69 | 203 | 4.0 | 10.0 | 0.00 | 0.03 | 0.03 | 75 | 1012.5 |
| 20260508161500 | 69 | 227 | 5.0 | 10.0 | 0.00 | 0.03 | 0.03 | 78 | 1013.0 |
| 20260508161400 | 69 | 182 | 4.0 | 10.0 | 0.00 | 0.03 | 0.03 | 76 | 1013.0 |
| 20260508161300 | 69 | 169 | 5.0 | 10.0 | 0.00 | 0.03 | 0.03 | 76 | 1013.0 |
| 20260508161200 | 69 | 184 | 4.0 | 10.0 | 0.00 | 0.03 | 0.03 | 78 | 1013.1 |
| 20260508161100 | 69 | 207 | 5.0 | 10.0 | 0.00 | 0.03 | 0.03 | 78 | 1013.0 |
| 20260508161000 | 69 | 197 | 6.0 | 10.0 | 0.00 | 0.03 | 0.03 | 77 | 1013.0 |
| 20260508160900 | 69 | 145 | 7.0 | 10.0 | 0.00 | 0.03 | 0.03 | 76 | 1013.0 |
| 20260508160700 | 68 | 165 | 5.0 | 9.0 | 0.00 | 0.03 | 0.03 | 75 | 1013.0 |
| 20260508160559 | 68 | 198 | 5.0 | 9.0 | 0.00 | 0.03 | 0.03 | 75 | 1013.0 |
| 20260508160459 | 68 | 198 | 5.0 | 9.0 | 0.00 | 0.03 | 0.03 | 75 | 1013.1 |
| 20260508160259 | 68 | 205 | 5.0 | 10.0 | 0.00 | 0.03 | 0.03 | 76 | 1013.1 |
| 20260508160059 | 68 | 181 | 3.0 | 10.0 | 0.00 | 0.03 | 0.03 | 76 | 1012.6 |
| 20260508160000 | 68 | 196 | 5.0 | 10.0 | 0.00 | 0.03 | 0.03 | 76 | 1013.2 |
| 20260508155859 | 68 | 251 | 5.0 | 10.0 | 0.00 | 0.03 | 0.03 | 77 | 1013.1 |
| 20260508155759 | 68 | 201 | 6.0 | 10.0 | 0.00 | 0.03 | 0.03 | 77 | 1013.1 |
| 20260508155659 | 68 | 197 | 5.0 | 10.0 | 0.00 | 0.03 | 0.03 | 78 | 1013.1 |
| 20260508155600 | 68 | 174 | 5.0 | 10.0 | 0.00 | 0.03 | 0.03 | 77 | 1013.1 |
| 20260508155458 | 67 | 199 | 5.0 | 9.0 | 0.00 | 0.03 | 0.03 | 81 | 1013.1 |
| 20260508155359 | 67 | 183 | 4.0 | 9.0 | 0.00 | 0.03 | 0.03 | 81 | 1013.1 |
| 20260508155259 | 67 | 157 | 3.0 | 9.0 | 0.00 | 0.03 | 0.03 | 80 | 1013.1 |
| 20260508155158 | 67 | 193 | 4.0 | 9.0 | 0.00 | 0.03 | 0.03 | 80 | 1013.1 |
| 20260508155059 | 67 | 182 | 5.0 | 9.0 | 0.00 | 0.03 | 0.03 | 81 | 1013.1 |
| 20260508154959 | 67 | 180 | 5.0 | 9.0 | 0.00 | 0.03 | 0.03 | 82 | 1013.1 |
| 20260508154859 | 67 | 182 | 4.0 | 9.0 | 0.00 | 0.03 | 0.03 | 82 | 1013.1 |
| 20260508154759 | 67 | 193 | 4.0 | 9.0 | 0.00 | 0.03 | 0.03 | 82 | 1013.1 |
| 20260508154600 | 66 | 182 | 5.0 | 9.0 | 0.00 | 0.03 | 0.03 | 80 | 1013.1 |
| 20260508154459 | 66 | 159 | 5.0 | 9.0 | 0.00 | 0.03 | 0.03 | 80 | 1013.1 |
| 20260508154359 | 66 | 186 | 6.0 | 9.0 | 0.00 | 0.03 | 0.03 | 81 | 1013.2 |
| 20260508154259 | 66 | 186 | 6.0 | 9.0 | 0.00 | 0.03 | 0.03 | 81 | 1013.2 |
| 20260508154158 | 66 | 185 | 5.0 | 9.0 | 0.00 | 0.03 | 0.03 | 82 | 1013.3 |
| 20260508154058 | 66 | 175 | 4.0 | 8.0 | 0.00 | 0.03 | 0.03 | 82 | 1013.2 |
| 20260508153958 | 66 | 184 | 3.0 | 8.0 | 0.00 | 0.03 | 0.03 | 82 | 1013.3 |
| 20260508153858 | 66 | 202 | 4.0 | 8.0 | 0.00 | 0.03 | 0.03 | 82 | 1013.3 |
| 20260508153659 | 66 | 182 | 4.0 | 8.0 | 0.00 | 0.03 | 0.03 | 83 | 1013.4 |
| 20260508153558 | 66 | 236 | 3.0 | 8.0 | 0.00 | 0.03 | 0.03 | 83 | 1013.4 |
| 20260508153358 | 66 | 191 | 5.0 | 8.0 | 0.00 | 0.03 | 0.03 | 82 | 1013.4 |
| 20260508153158 | 66 | 191 | 3.0 | 7.0 | 0.00 | 0.03 | 0.03 | 82 | 1013.4 |
| 20260508153059 | 66 | 178 | 3.0 | 7.0 | 0.00 | 0.03 | 0.03 | 85 | 1013.3 |
| 20260508152858 | 66 | 205 | 2.0 | 10.0 | 0.00 | 0.03 | 0.03 | 86 | 1013.2 |
| 20260508152759 | 66 | 171 | 2.0 | 10.0 | 0.00 | 0.03 | 0.03 | 84 | 1013.2 |
| 20260508152658 | 65 | 144 | 3.0 | 10.0 | 0.00 | 0.03 | 0.03 | 84 | 1013.1 |
| 20260508152558 | 65 | 159 | 3.0 | 10.0 | 0.00 | 0.03 | 0.03 | 83 | 1013.1 |
| 20260508152458 | 65 | 167 | 3.0 | 10.0 | 0.00 | 0.03 | 0.03 | 84 | 1013.1 |
| 20260508152358 | 65 | 137 | 3.0 | 10.0 | 0.00 | 0.03 | 0.03 | 84 | 1013.2 |
| 20260508152258 | 65 | 182 | 5.0 | 10.0 | 0.00 | 0.03 | 0.03 | 83 | 1013.3 |
| 20260508152159 | 65 | 160 | 5.0 | 12.0 | 0.00 | 0.03 | 0.03 | 83 | 1013.3 |
| 20260508152059 | 65 | 188 | 5.0 | 12.0 | 0.00 | 0.03 | 0.03 | 85 | 1013.4 |
| 20260508151858 | 65 | 183 | 5.0 | 12.0 | 0.00 | 0.03 | 0.03 | 84 | 1013.3 |
| 20260508151558 | 65 | 144 | 5.0 | 12.0 | 0.00 | 0.03 | 0.03 | 83 | 1012.8 |
| 20260508151458 | 65 | 202 | 7.0 | 12.0 | 0.00 | 0.03 | 0.03 | 83 | 1013.4 |
| 20260508151358 | 65 | 180 | 7.0 | 12.0 | 0.00 | 0.03 | 0.03 | 83 | 1013.4 |
| 20260508151258 | 65 | 173 | 6.0 | 9.0 | 0.00 | 0.03 | 0.03 | 85 | 1013.3 |
| 20260508151158 | 65 | 178 | 5.0 | 9.0 | 0.00 | 0.03 | 0.03 | 87 | 1013.4 |
| 20260508151059 | 65 | 198 | 4.0 | 7.0 | 0.00 | 0.03 | 0.03 | 87 | 1013.4 |
| 20260508150859 | 64 | 165 | 3.0 | 7.0 | 0.00 | 0.03 | 0.03 | 86 | 1013.4 |
| 20260508150657 | 64 | 158 | 4.0 | 7.0 | 0.00 | 0.03 | 0.03 | 85 | 1013.4 |
| 20260508150557 | 64 | 182 | 4.0 | 9.0 | 0.00 | 0.03 | 0.03 | 85 | 1013.5 |
| 20260508150458 | 64 | 148 | 3.0 | 9.0 | 0.00 | 0.03 | 0.03 | 85 | 1013.5 |
| 20260508150358 | 64 | 194 | 2.0 | 9.0 | 0.00 | 0.03 | 0.03 | 85 | 1013.6 |
| 20260508150258 | 64 | 148 | 1.0 | 7.0 | 0.00 | 0.03 | 0.03 | 85 | 1013.6 |
| 20260508150158 | 64 | 182 | 1.0 | 7.0 | 0.00 | 0.03 | 0.03 | 85 | 1013.8 |
| 20260508150100 | 64 | 237 | 0.0 | 7.0 | 0.00 | 0.03 | 0.03 | 85 | 1013.2 |
| 20260508150059 | 64 | 237 | 1.0 | 7.0 | 0.00 | 0.03 | 0.03 | 85 | 1013.8 |
| 20260508145958 | 64 | 237 | 1.0 | 7.0 | 0.00 | 0.03 | 0.03 | 85 | 1013.8 |
| 20260508145857 | 64 | 238 | 3.0 | 7.0 | 0.00 | 0.03 | 0.03 | 84 | 1013.8 |
| 20260508145758 | 64 | 196 | 4.0 | 7.0 | 0.00 | 0.03 | 0.03 | 85 | 1013.8 |
| 20260508145700 | 64 | 182 | 4.0 | 7.0 | 0.00 | 0.03 | 0.03 | 85 | 1013.8 |
| 20260508145558 | 64 | 206 | 3.0 | 7.0 | 0.00 | 0.03 | 0.03 | 84 | 1013.9 |
| 20260508145457 | 64 | 184 | 3.0 | 8.0 | 0.00 | 0.03 | 0.03 | 85 | 1013.8 |
| 20260508145357 | 64 | 167 | 3.0 | 8.0 | 0.00 | 0.03 | 0.03 | 85 | 1013.8 |
| 20260508145158 | 64 | 205 | 2.0 | 8.0 | 0.00 | 0.03 | 0.03 | 86 | 1013.8 |
| 20260508145057 | 64 | 193 | 2.0 | 8.0 | 0.00 | 0.03 | 0.03 | 86 | 1013.8 |
| 20260508144958 | 64 | 190 | 3.0 | 8.0 | 0.00 | 0.03 | 0.03 | 86 | 1013.8 |
| 20260508144858 | 64 | 184 | 3.0 | 8.0 | 0.00 | 0.03 | 0.03 | 85 | 1013.8 |
| 20260508144759 | 64 | 204 | 3.0 | 8.0 | 0.00 | 0.03 | 0.03 | 86 | 1013.7 |
| 20260508144659 | 64 | 191 | 3.0 | 8.0 | 0.00 | 0.03 | 0.03 | 86 | 1013.8 |
| 20260508144604 | 64 | 169 | 3.0 | 8.0 | 0.00 | 0.03 | 0.03 | 85 | 1013.3 |
| 20260508144559 | 64 | 169 | 3.0 | 8.0 | 0.00 | 0.03 | 0.03 | 85 | 1013.8 |
| 20260508144457 | 64 | 197 | 3.0 | 8.0 | 0.00 | 0.03 | 0.03 | 86 | 1013.8 |
| 20260508144358 | 64 | 245 | 4.0 | 8.0 | 0.00 | 0.03 | 0.03 | 86 | 1013.8 |
| 20260508144258 | 64 | 190 | 4.0 | 8.0 | 0.00 | 0.03 | 0.03 | 86 | 1013.8 |
| 20260508144158 | 64 | 200 | 4.0 | 8.0 | 0.00 | 0.03 | 0.03 | 87 | 1013.6 |
| 20260508143958 | 64 | 184 | 4.0 | 8.0 | 0.00 | 0.03 | 0.03 | 86 | 1013.5 |
| 20260508143859 | 64 | 179 | 3.0 | 8.0 | 0.00 | 0.03 | 0.03 | 85 | 1013.5 |
| 20260508143759 | 64 | 197 | 4.0 | 8.0 | 0.00 | 0.03 | 0.03 | 85 | 1013.5 |
| 20260508143658 | 64 | 217 | 5.0 | 8.0 | 0.00 | 0.03 | 0.03 | 85 | 1013.6 |
| 20260508143558 | 64 | 176 | 5.0 | 8.0 | 0.00 | 0.03 | 0.03 | 85 | 1013.6 |
| 20260508143500 | 64 | 178 | 6.0 | 9.0 | 0.00 | 0.03 | 0.03 | 85 | 1013.6 |
| 20260508143359 | 64 | 198 | 6.0 | 9.0 | 0.00 | 0.03 | 0.03 | 86 | 1013.7 |
| 20260508143258 | 64 | 157 | 6.0 | 9.0 | 0.00 | 0.03 | 0.03 | 86 | 1013.6 |
| 20260508143059 | 64 | 179 | 4.0 | 9.0 | 0.01 | 0.03 | 0.03 | 88 | 1013.6 |
| 20260508142959 | 64 | 165 | 4.0 | 9.0 | 0.01 | 0.03 | 0.03 | 88 | 1013.6 |
| 20260508142859 | 64 | 170 | 4.0 | 9.0 | 0.01 | 0.03 | 0.03 | 87 | 1013.6 |
| 20260508142759 | 64 | 157 | 5.0 | 9.0 | 0.01 | 0.03 | 0.03 | 90 | 1013.5 |
| 20260508142459 | 63 | 145 | 2.0 | 9.0 | 0.01 | 0.03 | 0.03 | 91 | 1013.5 |
| 20260508142359 | 63 | 148 | 2.0 | 9.0 | 0.01 | 0.03 | 0.03 | 91 | 1013.4 |
| 20260508142158 | 63 | 173 | 5.0 | 10.0 | 0.01 | 0.03 | 0.03 | 90 | 1013.4 |
| 20260508142058 | 62 | 192 | 6.0 | 10.0 | 0.01 | 0.03 | 0.03 | 90 | 1013.4 |
| 20260508141957 | 62 | 169 | 6.0 | 10.0 | 0.01 | 0.03 | 0.03 | 90 | 1013.3 |
| 20260508141859 | 62 | 175 | 5.0 | 9.0 | 0.01 | 0.03 | 0.03 | 91 | 1013.3 |
| 20260508141759 | 62 | 180 | 4.0 | 9.0 | 0.01 | 0.03 | 0.03 | 91 | 1013.3 |
| 20260508141659 | 62 | 187 | 5.0 | 9.0 | 0.01 | 0.03 | 0.03 | 91 | 1013.3 |
| 20260508141604 | 62 | 151 | 4.0 | 9.0 | 0.01 | 0.03 | 0.03 | 90 | 1012.8 |
| 20260508141559 | 62 | 151 | 5.0 | 9.0 | 0.01 | 0.03 | 0.03 | 90 | 1013.3 |
| 20260508141459 | 62 | 162 | 6.0 | 10.0 | 0.01 | 0.03 | 0.03 | 90 | 1013.3 |
| 20260508141359 | 62 | 178 | 5.0 | 10.0 | 0.01 | 0.03 | 0.03 | 90 | 1013.5 |
| 20260508141259 | 62 | 180 | 6.0 | 10.0 | 0.01 | 0.03 | 0.03 | 90 | 1013.5 |
| 20260508141157 | 62 | 156 | 6.0 | 9.0 | 0.01 | 0.03 | 0.03 | 91 | 1013.5 |
| 20260508141058 | 62 | 186 | 6.0 | 9.0 | 0.01 | 0.03 | 0.03 | 91 | 1013.5 |
| 20260508140959 | 62 | 172 | 6.0 | 9.0 | 0.01 | 0.03 | 0.03 | 91 | 1013.5 |
| 20260508140857 | 62 | 142 | 5.0 | 8.0 | 0.01 | 0.03 | 0.03 | 93 | 1013.6 |
| 20260508140800 | 62 | 170 | 5.0 | 8.0 | 0.01 | 0.03 | 0.03 | 93 | 1013.6 |
| 20260508140700 | 61 | 161 | 4.0 | 6.0 | 0.01 | 0.03 | 0.03 | 93 | 1013.6 |
| 20260508140558 | 61 | 176 | 5.0 | 6.0 | 0.01 | 0.03 | 0.03 | 92 | 1013.6 |
| 20260508140458 | 61 | 157 | 5.0 | 6.0 | 0.02 | 0.03 | 0.03 | 92 | 1013.7 |
| 20260508140358 | 61 | 157 | 5.0 | 7.0 | 0.02 | 0.03 | 0.03 | 92 | 1013.7 |
| 20260508140159 | 61 | 163 | 4.0 | 6.0 | 0.02 | 0.03 | 0.03 | 93 | 1013.9 |
| 20260508140059 | 61 | 171 | 4.0 | 6.0 | 0.02 | 0.03 | 0.03 | 94 | 1013.9 |
| 20260508135959 | 61 | 159 | 4.0 | 6.0 | 0.02 | 0.03 | 0.03 | 94 | 1013.8 |
| 20260508135758 | 60 | 169 | 2.0 | 6.0 | 0.02 | 0.03 | 0.03 | 94 | 1013.8 |
| 20260508135658 | 60 | 161 | 1.0 | 5.0 | 0.02 | 0.03 | 0.03 | 94 | 1013.8 |
| 20260508135559 | 60 | 192 | 1.0 | 2.0 | 0.02 | 0.03 | 0.03 | 93 | 1013.9 |
| 20260508135359 | 59 | 225 | 0.0 | 2.0 | 0.02 | 0.03 | 0.03 | 93 | 1014.2 |
| 20260508135258 | 59 | 232 | 0.0 | 2.0 | 0.02 | 0.03 | 0.03 | 93 | 1014.3 |
| 20260508135158 | 59 | 232 | 0.0 | 2.0 | 0.02 | 0.03 | 0.03 | 93 | 1014.3 |
| 20260508135059 | 59 | 232 | 0.0 | 2.0 | 0.02 | 0.03 | 0.03 | 92 | 1014.4 |
| 20260508135000 | 59 | 231 | 0.0 | 2.0 | 0.02 | 0.03 | 0.03 | 92 | 1014.4 |
| 20260508134858 | 59 | 231 | 0.0 | 2.0 | 0.02 | 0.03 | 0.03 | 93 | 1014.4 |
| 20260508134759 | 59 | 231 | 0.0 | 2.0 | 0.02 | 0.03 | 0.03 | 93 | 1014.4 |
| 20260508134657 | 59 | 231 | 0.0 | 2.0 | 0.02 | 0.03 | 0.03 | 93 | 1014.4 |
| 20260508134603 | 59 | 231 | 0.0 | 2.0 | 0.02 | 0.03 | 0.03 | 93 | 1014.0 |
| 20260508134559 | 59 | 231 | 0.0 | 2.0 | 0.02 | 0.03 | 0.03 | 93 | 1014.4 |
| 20260508134359 | 59 | 231 | 0.0 | 2.0 | 0.02 | 0.03 | 0.03 | 93 | 1014.4 |
| 20260508134257 | 59 | 231 | 0.0 | 2.0 | 0.03 | 0.03 | 0.03 | 93 | 1014.3 |
| 20260508134058 | 59 | 231 | 0.0 | 2.0 | 0.03 | 0.03 | 0.03 | 93 | 1014.2 |
| 20260508133858 | 59 | 231 | 0.0 | 2.0 | 0.03 | 0.03 | 0.03 | 93 | 1014.1 |
| 20260508133758 | 59 | 231 | 0.0 | 2.0 | 0.03 | 0.03 | 0.03 | 93 | 1014.1 |
| 20260508133659 | 59 | 231 | 0.0 | 2.0 | 0.03 | 0.03 | 0.03 | 93 | 1014.1 |
| 20260508133459 | 59 | 247 | 0.0 | 2.0 | 0.03 | 0.03 | 0.03 | 92 | 1014.4 |
| 20260508133358 | 58 | 247 | 0.0 | 2.0 | 0.03 | 0.03 | 0.03 | 92 | 1014.5 |
| 20260508133258 | 58 | 247 | 0.0 | 2.0 | 0.03 | 0.03 | 0.03 | 92 | 1014.6 |
| 20260508133159 | 58 | 247 | 0.0 | 2.0 | 0.02 | 0.02 | 0.02 | 92 | 1014.6 |
| 20260508133105 | 58 | 247 | 0.0 | 2.0 | 0.02 | 0.02 | 0.02 | 93 | 1014.2 |
| 20260508132959 | 58 | 247 | 0.0 | 2.0 | 0.02 | 0.02 | 0.02 | 93 | 1014.7 |
| 20260508132700 | 58 | 161 | 1.0 | 2.0 | 0.02 | 0.02 | 0.02 | 93 | 1014.7 |
| 20260508132559 | 58 | 130 | 0.0 | 2.0 | 0.02 | 0.02 | 0.02 | 93 | 1014.6 |
| 20260508132459 | 58 | 130 | 0.0 | 2.0 | 0.02 | 0.02 | 0.02 | 93 | 1014.5 |
| 20260508132359 | 58 | 130 | 0.0 | 2.0 | 0.02 | 0.02 | 0.02 | 93 | 1014.4 |
| 20260508132300 | 58 | 130 | 0.0 | 2.0 | 0.02 | 0.02 | 0.02 | 93 | 1014.3 |
| 20260508132058 | 58 | 130 | 0.0 | 2.0 | 0.02 | 0.02 | 0.02 | 93 | 1014.0 |
| 20260508131959 | 58 | 130 | 0.0 | 2.0 | 0.02 | 0.02 | 0.02 | 93 | 1014.0 |
| 20260508131859 | 58 | 130 | 0.0 | 2.0 | 0.02 | 0.02 | 0.02 | 93 | 1014.0 |
| 20260508131758 | 58 | 130 | 0.0 | 2.0 | 0.02 | 0.02 | 0.02 | 93 | 1013.9 |
| 20260508131658 | 58 | 130 | 0.0 | 2.0 | 0.02 | 0.02 | 0.02 | 93 | 1014.0 |
| 20260508131559 | 58 | 130 | 0.0 | 2.0 | 0.02 | 0.02 | 0.02 | 93 | 1014.0 |
| 20260508131458 | 58 | 130 | 0.0 | 3.0 | 0.02 | 0.02 | 0.02 | 93 | 1014.1 |
| 20260508131358 | 58 | 130 | 0.0 | 3.0 | 0.02 | 0.02 | 0.02 | 93 | 1014.1 |
| 20260508131259 | 58 | 130 | 0.0 | 3.0 | 0.02 | 0.02 | 0.02 | 93 | 1014.1 |
| 20260508131158 | 58 | 122 | 0.0 | 3.0 | 0.02 | 0.02 | 0.02 | 93 | 1014.1 |
| 20260508131059 | 58 | 122 | 0.0 | 3.0 | 0.02 | 0.02 | 0.02 | 93 | 1014.0 |
| 20260508130958 | 58 | 117 | 0.0 | 3.0 | 0.02 | 0.02 | 0.02 | 93 | 1014.0 |
| 20260508130859 | 58 | 117 | 1.0 | 3.0 | 0.02 | 0.02 | 0.02 | 93 | 1013.9 |
| 20260508130758 | 58 | 121 | 1.0 | 3.0 | 0.02 | 0.02 | 0.02 | 93 | 1013.9 |
| 20260508130658 | 58 | 109 | 2.0 | 3.0 | 0.02 | 0.02 | 0.02 | 93 | 1013.9 |
| 20260508130558 | 58 | 153 | 2.0 | 2.0 | 0.02 | 0.02 | 0.02 | 93 | 1014.1 |
| 20260508130458 | 58 | 153 | 2.0 | 2.0 | 0.01 | 0.01 | 0.01 | 93 | 1014.2 |
| 20260508130358 | 58 | 157 | 1.0 | 2.0 | 0.01 | 0.01 | 0.01 | 93 | 1014.2 |
| 20260508130258 | 58 | 157 | 0.0 | 2.0 | 0.01 | 0.01 | 0.01 | 93 | 1014.3 |
| 20260508130109 | 58 | 159 | 0.0 | 2.0 | 0.01 | 0.01 | 0.01 | 93 | 1013.8 |
| 20260508130058 | 58 | 159 | 0.0 | 2.0 | 0.01 | 0.01 | 0.01 | 93 | 1014.3 |
| 20260508130000 | 58 | 159 | 0.0 | 2.0 | 0.01 | 0.01 | 0.01 | 93 | 1014.3 |
| 20260508125759 | 58 | 159 | 1.0 | 2.0 | 0.01 | 0.01 | 0.01 | 93 | 1014.3 |
| 20260508125658 | 58 | 159 | 0.0 | 2.0 | 0.01 | 0.01 | 0.01 | 93 | 1014.2 |
| 20260508125559 | 58 | 159 | 0.0 | 2.0 | 0.01 | 0.01 | 0.01 | 93 | 1014.2 |
| 20260508125459 | 58 | 159 | 0.0 | 3.0 | 0.01 | 0.01 | 0.01 | 93 | 1014.2 |
| 20260508125258 | 58 | 159 | 0.0 | 3.0 | 0.01 | 0.01 | 0.01 | 93 | 1014.1 |
| 20260508125159 | 58 | 182 | 0.0 | 3.0 | 0.01 | 0.01 | 0.01 | 93 | 1014.1 |
| 20260508125059 | 58 | 184 | 0.0 | 3.0 | 0.01 | 0.01 | 0.01 | 93 | 1014.1 |
| 20260508124959 | 58 | 184 | 0.0 | 3.0 | 0.01 | 0.01 | 0.01 | 93 | 1014.0 |
| 20260508124758 | 58 | 184 | 1.0 | 3.0 | 0.01 | 0.01 | 0.01 | 93 | 1014.0 |
| 20260508124659 | 58 | 184 | 1.0 | 4.0 | 0.01 | 0.01 | 0.01 | 93 | 1014.0 |
| 20260508124558 | 57 | 184 | 1.0 | 4.0 | 0.01 | 0.01 | 0.01 | 93 | 1014.1 |
| 20260508124458 | 57 | 205 | 1.0 | 4.0 | 0.01 | 0.01 | 0.01 | 93 | 1014.1 |
| 20260508124358 | 57 | 206 | 1.0 | 4.0 | 0.01 | 0.01 | 0.01 | 93 | 1014.1 |
| 20260508124259 | 57 | 159 | 1.0 | 4.0 | 0.00 | 0.00 | 0.00 | 93 | 1014.0 |
| 20260508124158 | 57 | 159 | 1.0 | 4.0 | 0.00 | 0.00 | 0.00 | 93 | 1013.9 |
| 20260508124058 | 57 | 159 | 2.0 | 4.0 | 0.00 | 0.00 | 0.00 | 93 | 1013.9 |
| 20260508123958 | 57 | 159 | 2.0 | 4.0 | 0.00 | 0.00 | 0.00 | 93 | 1013.8 |
| 20260508123858 | 57 | 147 | 2.0 | 4.0 | 0.00 | 0.00 | 0.00 | 93 | 1013.8 |
| 20260508123800 | 57 | 155 | 2.0 | 4.0 | 0.00 | 0.00 | 0.00 | 93 | 1013.7 |
| 20260508123659 | 57 | 146 | 2.0 | 3.0 | 0.00 | 0.00 | 0.00 | 93 | 1013.8 |
| 20260508123558 | 57 | 123 | 1.0 | 2.0 | 0.00 | 0.00 | 0.00 | 93 | 1013.8 |
| 20260508123458 | 57 | 119 | 1.0 | 2.0 | 0.00 | 0.00 | 0.00 | 93 | 1013.7 |
| 20260508123359 | 57 | 119 | 1.0 | 2.0 | 0.00 | 0.00 | 0.00 | 93 | 1013.6 |
| 20260508123300 | 57 | 123 | 1.0 | 2.0 | 0.00 | 0.00 | 0.00 | 93 | 1013.8 |
| 20260508123058 | 57 | 137 | 0.0 | 2.0 | 0.00 | 0.00 | 0.00 | 93 | 1014.1 |
| 20260508123000 | 57 | 138 | 0.0 | 2.0 | 0.00 | 0.00 | 0.00 | 93 | 1014.3 |
| 20260508122900 | 57 | 138 | 1.0 | 2.0 | 0.00 | 0.00 | 0.00 | 93 | 1014.3 |
| 20260508122759 | 57 | 137 | 0.0 | 3.0 | 0.00 | 0.00 | 0.00 | 93 | 1014.4 |
| 20260508122558 | 57 | 136 | 0.0 | 3.0 | 0.00 | 0.00 | 0.00 | 93 | 1014.4 |
| 20260508122458 | 57 | 135 | 0.0 | 3.0 | 0.00 | 0.00 | 0.00 | 93 | 1014.4 |
| 20260508122358 | 57 | 136 | 0.0 | 3.0 | 0.00 | 0.00 | 0.00 | 93 | 1014.4 |
| 20260508122258 | 57 | 136 | 0.0 | 3.0 | 0.00 | 0.00 | 0.00 | 93 | 1014.5 |
| 20260508122158 | 57 | 136 | 0.0 | 3.0 | 0.00 | 0.00 | 0.00 | 93 | 1014.4 |
| 20260508122059 | 57 | 136 | 1.0 | 3.0 | 0.00 | 0.00 | 0.00 | 93 | 1014.4 |
| 20260508121858 | 57 | 136 | 2.0 | 3.0 | 0.00 | 0.00 | 0.00 | 93 | 1014.3 |
| 20260508121800 | 57 | 163 | 2.0 | 3.0 | 0.00 | 0.00 | 0.00 | 93 | 1014.4 |
| 20260508121557 | 57 | 184 | 0.0 | 3.0 | 0.00 | 0.00 | 0.00 | 93 | 1014.2 |
| 20260508121458 | 57 | 182 | 0.0 | 2.0 | 0.00 | 0.00 | 0.00 | 93 | 1014.7 |
| 20260508121359 | 57 | 182 | 0.0 | 0.0 | 0.00 | 0.00 | 0.00 | 93 | 1014.7 |
| 20260508121258 | 57 | 182 | 0.0 | 0.0 | 0.00 | 0.00 | 0.00 | 93 | 1014.8 |
| 20260508121159 | 57 | 182 | 0.0 | 0.0 | 0.00 | 0.00 | 0.00 | 93 | 1014.8 |
| 20260508120959 | 57 | 182 | 0.0 | 0.0 | 0.00 | 0.00 | 0.00 | 93 | 1014.6 |
| 20260508120858 | 57 | 182 | 0.0 | 1.0 | 0.00 | 0.00 | 0.00 | 93 | 1014.6 |
| 20260508120758 | 57 | 182 | 0.0 | 1.0 | 0.00 | 0.00 | 0.00 | 93 | 1014.5 |
| 20260508120658 | 57 | 182 | 0.0 | 2.0 | 0.00 | 0.00 | 0.00 | 93 | 1014.5 |
| 20260508120458 | 57 | 182 | 0.0 | 2.0 | 0.00 | 0.00 | 0.00 | 93 | 1014.4 |
| 20260508120358 | 56 | 182 | 0.0 | 2.0 | 0.00 | 0.00 | 0.00 | 93 | 1014.4 |
| 20260508120258 | 56 | 182 | 0.0 | 2.0 | 0.00 | 0.00 | 0.00 | 93 | 1014.3 |
| 20260508120159 | 56 | 182 | 0.0 | 2.0 | 0.00 | 0.00 | 0.00 | 93 | 1014.3 |
| 20260508120100 | 56 | 182 | 0.0 | 2.0 | 0.00 | 0.00 | 0.00 | 93 | 1013.7 |
| 20260508115958 | 56 | 182 | 0.0 | 2.0 | 0.00 | 0.00 | 0.00 | 93 | 1014.1 |
| 20260508115857 | 56 | 183 | 0.0 | 2.0 | 0.00 | 0.00 | 0.00 | 93 | 1014.1 |
| 20260508115658 | 56 | 183 | 0.0 | 2.0 | 0.00 | 0.00 | 0.00 | 93 | 1014.0 |
| 20260508115500 | 56 | 183 | 0.0 | 2.0 | 0.00 | 0.00 | 0.00 | 93 | 1014.1 |
| 20260508115357 | 56 | 184 | 0.0 | 2.0 | 0.00 | 0.00 | 0.00 | 93 | 1014.1 |
| 20260508115257 | 56 | 184 | 0.0 | 2.0 | 0.00 | 0.00 | 0.00 | 93 | 1014.1 |
| 20260508115157 | 56 | 184 | 1.0 | 2.0 | 0.00 | 0.00 | 0.00 | 93 | 1014.2 |
| 20260508115057 | 56 | 184 | 1.0 | 2.0 | 0.00 | 0.00 | 0.00 | 93 | 1014.2 |
| 20260508114957 | 56 | 184 | 1.0 | 2.0 | 0.00 | 0.00 | 0.00 | 93 | 1014.2 |
| 20260508114858 | 56 | 184 | 1.0 | 2.0 | 0.00 | 0.00 | 0.00 | 93 | 1014.2 |
| 20260508114757 | 56 | 184 | 1.0 | 2.0 | 0.00 | 0.00 | 0.00 | 93 | 1014.1 |
| 20260508114656 | 56 | 184 | 1.0 | 2.0 | 0.00 | 0.00 | 0.00 | 93 | 1014.1 |
| 20260508114558 | 56 | 184 | 1.0 | 2.0 | 0.00 | 0.00 | 0.00 | 93 | 1014.2 |
| 20260508114556 | 56 | 184 | 0.0 | 2.0 | 0.00 | 0.00 | 0.00 | 93 | 1013.8 |
| 20260508114457 | 56 | 184 | 0.0 | 2.0 | 0.00 | 0.00 | 0.00 | 93 | 1014.2 |
| 20260508114357 | 56 | 184 | 0.0 | 2.0 | 0.00 | 0.00 | 0.00 | 93 | 1014.1 |
| 20260508114257 | 56 | 184 | 0.0 | 2.0 | 0.00 | 0.00 | 0.00 | 93 | 1014.1 |
| 20260508114157 | 56 | 184 | 0.0 | 2.0 | 0.00 | 0.00 | 0.00 | 93 | 1014.1 |
| 20260508113957 | 56 | 184 | 0.0 | 0.0 | 0.00 | 0.00 | 0.00 | 93 | 1014.1 |
| 20260508113857 | 55 | 184 | 0.0 | 0.0 | 0.00 | 0.00 | 0.00 | 93 | 1014.1 |
| 20260508113757 | 55 | 184 | 0.0 | 0.0 | 0.00 | 0.00 | 0.00 | 93 | 1014.0 |
| 20260508113657 | 55 | 184 | 0.0 | 0.0 | 0.00 | 0.00 | 0.00 | 93 | 1014.0 |
| 20260508113557 | 55 | 184 | 0.0 | 0.0 | 0.00 | 0.00 | 0.00 | 93 | 1014.0 |
| 20260508113458 | 55 | 184 | 0.0 | 0.0 | 0.00 | 0.00 | 0.00 | 93 | 1013.9 |
| 20260508113257 | 55 | 184 | 0.0 | 0.0 | 0.00 | 0.00 | 0.00 | 92 | 1013.8 |
| 20260508113156 | 55 | 184 | 0.0 | 0.0 | 0.00 | 0.00 | 0.00 | 92 | 1013.8 |
| 20260508113059 | 55 | 184 | 0.0 | 0.0 | 0.00 | 0.00 | 0.00 | 92 | 1013.3 |
| 20260508112857 | 55 | 184 | 0.0 | 0.0 | 0.00 | 0.00 | 0.00 | 92 | 1013.7 |
| 20260508112757 | 55 | 184 | 0.0 | 0.0 | 0.00 | 0.00 | 0.00 | 92 | 1013.6 |
| 20260508112658 | 55 | 184 | 0.0 | 1.0 | 0.00 | 0.00 | 0.00 | 92 | 1013.5 |
| 20260508112457 | 55 | 184 | 0.0 | 1.0 | 0.00 | 0.00 | 0.00 | 92 | 1013.5 |
| 20260508112357 | 55 | 184 | 0.0 | 1.0 | 0.00 | 0.00 | 0.00 | 92 | 1013.5 |
| 20260508112256 | 55 | 184 | 0.0 | 1.0 | 0.00 | 0.00 | 0.00 | 92 | 1013.6 |
| 20260508112156 | 55 | 184 | 0.0 | 1.0 | 0.00 | 0.00 | 0.00 | 92 | 1013.5 |
| 20260508112056 | 55 | 184 | 0.0 | 1.0 | 0.00 | 0.00 | 0.00 | 92 | 1013.6 |
| 20260508111958 | 55 | 184 | 0.0 | 2.0 | 0.00 | 0.00 | 0.00 | 92 | 1013.5 |
| 20260508111557 | 55 | 184 | 0.0 | 2.0 | 0.00 | 0.00 | 0.00 | 92 | 1013.1 |
| 20260508111457 | 55 | 185 | 1.0 | 2.0 | 0.00 | 0.00 | 0.00 | 92 | 1013.6 |
| 20260508111357 | 55 | 185 | 1.0 | 2.0 | 0.00 | 0.00 | 0.00 | 92 | 1013.8 |
| 20260508111157 | 55 | 185 | 1.0 | 2.0 | 0.00 | 0.00 | 0.00 | 92 | 1013.9 |
| 20260508111057 | 55 | 185 | 1.0 | 2.0 | 0.00 | 0.00 | 0.00 | 92 | 1013.9 |
| 20260508110958 | 55 | 185 | 1.0 | 2.0 | 0.00 | 0.00 | 0.00 | 92 | 1013.8 |
| 20260508110857 | 55 | 185 | 0.0 | 2.0 | 0.00 | 0.00 | 0.00 | 92 | 1013.8 |
| 20260508110757 | 55 | 185 | 0.0 | 3.0 | 0.00 | 0.00 | 0.00 | 92 | 1013.8 |
| 20260508110657 | 55 | 185 | 0.0 | 3.0 | 0.00 | 0.00 | 0.00 | 92 | 1013.8 |
| 20260508110557 | 55 | 185 | 0.0 | 3.0 | 0.00 | 0.00 | 0.00 | 92 | 1013.8 |
| 20260508110456 | 55 | 185 | 0.0 | 3.0 | 0.00 | 0.00 | 0.00 | 92 | 1013.8 |
| 20260508110358 | 55 | 185 | 0.0 | 3.0 | 0.00 | 0.00 | 0.00 | 92 | 1013.8 |
| 20260508110257 | 55 | 185 | 0.0 | 3.0 | 0.00 | 0.00 | 0.00 | 92 | 1013.7 |
| 20260508110123 | 55 | 185 | 0.0 | 3.0 | 0.00 | 0.00 | 0.00 | 92 | 1013.3 |
| 20260508110057 | 55 | 185 | 1.0 | 3.0 | 0.00 | 0.00 | 0.00 | 92 | 1013.8 |
| 20260508105958 | 55 | 185 | 1.0 | 3.0 | 0.00 | 0.00 | 0.00 | 92 | 1013.7 |
| 20260508105857 | 55 | 185 | 1.0 | 3.0 | 0.00 | 0.00 | 0.00 | 92 | 1013.7 |
| 20260508105758 | 55 | 185 | 1.0 | 3.0 | 0.00 | 0.00 | 0.00 | 92 | 1013.7 |
| 20260508105657 | 55 | 182 | 1.0 | 2.0 | 0.00 | 0.00 | 0.00 | 92 | 1013.7 |
| 20260508105556 | 55 | 182 | 1.0 | 2.0 | 0.00 | 0.00 | 0.00 | 92 | 1013.7 |
| 20260508105457 | 55 | 182 | 1.0 | 2.0 | 0.00 | 0.00 | 0.00 | 91 | 1013.6 |
| 20260508105357 | 55 | 182 | 1.0 | 2.0 | 0.00 | 0.00 | 0.00 | 91 | 1013.6 |
| 20260508105256 | 55 | 179 | 2.0 | 2.0 | 0.00 | 0.00 | 0.00 | 91 | 1013.4 |
| 20260508105157 | 55 | 180 | 1.0 | 2.0 | 0.00 | 0.00 | 0.00 | 91 | 1013.4 |
| 20260508105057 | 55 | 180 | 1.0 | 2.0 | 0.00 | 0.00 | 0.00 | 91 | 1013.3 |
| 20260508104957 | 55 | 182 | 1.0 | 2.0 | 0.00 | 0.00 | 0.00 | 91 | 1013.3 |
| 20260508104857 | 55 | 182 | 1.0 | 2.0 | 0.00 | 0.00 | 0.00 | 92 | 1013.4 |
| 20260508104758 | 55 | 182 | 0.0 | 2.0 | 0.00 | 0.00 | 0.00 | 92 | 1013.3 |
| 20260508104603 | 55 | 182 | 0.0 | 2.0 | 0.00 | 0.00 | 0.00 | 92 | 1013.0 |
| 20260508104557 | 55 | 182 | 0.0 | 2.0 | 0.00 | 0.00 | 0.00 | 92 | 1013.4 |
| 20260508104358 | 56 | 182 | 1.0 | 2.0 | 0.00 | 0.00 | 0.00 | 92 | 1013.5 |
| 20260508104258 | 56 | 182 | 1.0 | 2.0 | 0.00 | 0.00 | 0.00 | 92 | 1013.4 |
| 20260508104157 | 56 | 182 | 1.0 | 2.0 | 0.00 | 0.00 | 0.00 | 93 | 1013.4 |
| 20260508103958 | 55 | 191 | 0.0 | 2.0 | 0.00 | 0.00 | 0.00 | 93 | 1013.5 |
| 20260508103858 | 55 | 192 | 0.0 | 2.0 | 0.00 | 0.00 | 0.00 | 93 | 1013.6 |
| 20260508103757 | 55 | 192 | 0.0 | 2.0 | 0.00 | 0.00 | 0.00 | 93 | 1013.7 |
| 20260508103657 | 55 | 192 | 0.0 | 2.0 | 0.00 | 0.00 | 0.00 | 93 | 1013.7 |
| 20260508103557 | 55 | 192 | 0.0 | 2.0 | 0.00 | 0.00 | 0.00 | 93 | 1013.8 |
| 20260508103458 | 55 | 192 | 0.0 | 2.0 | 0.00 | 0.00 | 0.00 | 93 | 1013.9 |
| 20260508103257 | 55 | 192 | 0.0 | 0.0 | 0.00 | 0.00 | 0.00 | 93 | 1013.8 |
| 20260508103157 | 55 | 192 | 0.0 | 0.0 | 0.00 | 0.00 | 0.00 | 93 | 1013.8 |
| 20260508103058 | 55 | 192 | 0.0 | 0.0 | 0.00 | 0.00 | 0.00 | 92 | 1013.3 |
| 20260508102957 | 55 | 192 | 0.0 | 0.0 | 0.00 | 0.00 | 0.00 | 92 | 1013.7 |
| 20260508102857 | 55 | 192 | 0.0 | 0.0 | 0.00 | 0.00 | 0.00 | 92 | 1013.8 |
| 20260508102757 | 55 | 192 | 0.0 | 0.0 | 0.00 | 0.00 | 0.00 | 92 | 1013.7 |
| 20260508102657 | 55 | 192 | 0.0 | 0.0 | 0.00 | 0.00 | 0.00 | 92 | 1013.7 |
| 20260508102457 | 55 | 192 | 0.0 | 0.0 | 0.00 | 0.00 | 0.00 | 91 | 1013.5 |
| 20260508102258 | 55 | 192 | 0.0 | 0.0 | 0.00 | 0.00 | 0.00 | 91 | 1013.3 |
| 20260508102157 | 55 | 192 | 0.0 | 0.0 | 0.00 | 0.00 | 0.00 | 91 | 1013.2 |
| 20260508102057 | 55 | 192 | 0.0 | 0.0 | 0.00 | 0.00 | 0.00 | 91 | 1013.2 |
| 20260508101957 | 55 | 192 | 0.0 | 0.0 | 0.00 | 0.00 | 0.00 | 92 | 1013.2 |
| 20260508101858 | 55 | 192 | 0.0 | 0.0 | 0.00 | 0.00 | 0.00 | 92 | 1013.2 |
| 20260508101657 | 55 | 192 | 0.0 | 0.0 | 0.00 | 0.00 | 0.00 | 92 | 1013.2 |
| 20260508101558 | 55 | 192 | 0.0 | 0.0 | 0.00 | 0.00 | 0.00 | 92 | 1012.8 |
| 20260508101456 | 55 | 192 | 0.0 | 0.0 | 0.00 | 0.00 | 0.00 | 92 | 1013.2 |
| 20260508101357 | 55 | 192 | 0.0 | 0.0 | 0.00 | 0.00 | 0.00 | 92 | 1013.2 |
| 20260508100957 | 55 | 192 | 0.0 | 0.0 | 0.00 | 0.00 | 0.00 | 92 | 1013.2 |
| 20260508100858 | 55 | 192 | 0.0 | 0.0 | 0.00 | 0.00 | 0.00 | 92 | 1013.2 |
| 20260508100757 | 55 | 192 | 0.0 | 0.0 | 0.00 | 0.00 | 0.00 | 92 | 1013.2 |
| 20260508100657 | 55 | 192 | 0.0 | 0.0 | 0.00 | 0.00 | 0.00 | 92 | 1013.2 |
| 20260508100556 | 55 | 192 | 0.0 | 0.0 | 0.00 | 0.00 | 0.00 | 92 | 1013.2 |
| 20260508100457 | 55 | 192 | 0.0 | 0.0 | 0.00 | 0.00 | 0.00 | 92 | 1013.2 |
| 20260508100357 | 55 | 192 | 0.0 | 0.0 | 0.00 | 0.00 | 0.00 | 92 | 1013.2 |
| 20260508100256 | 55 | 192 | 0.0 | 0.0 | 0.00 | 0.00 | 0.00 | 92 | 1013.2 |
| 20260508100058 | 55 | 192 | 0.0 | 0.0 | 0.00 | 0.00 | 0.00 | 92 | 1012.7 |
| 20260508095959 | 55 | 192 | 0.0 | 0.0 | 0.00 | 0.00 | 0.00 | 92 | 1013.1 |
| 20260508095757 | 55 | 192 | 0.0 | 0.0 | 0.00 | 0.00 | 0.00 | 92 | 1013.1 |
| 20260508095658 | 55 | 192 | 0.0 | 0.0 | 0.00 | 0.00 | 0.00 | 91 | 1013.0 |
| 20260508095557 | 55 | 192 | 0.0 | 0.0 | 0.00 | 0.00 | 0.00 | 91 | 1013.0 |
| 20260508095457 | 55 | 192 | 0.0 | 0.0 | 0.00 | 0.00 | 0.00 | 91 | 1013.0 |
| 20260508095257 | 55 | 192 | 0.0 | 0.0 | 0.00 | 0.00 | 0.00 | 91 | 1013.0 |
| 20260508095157 | 55 | 192 | 0.0 | 0.0 | 0.00 | 0.00 | 0.00 | 91 | 1012.8 |
| 20260508095057 | 55 | 192 | 0.0 | 0.0 | 0.00 | 0.00 | 0.00 | 92 | 1012.8 |
| 20260508094957 | 55 | 192 | 0.0 | 0.0 | 0.00 | 0.00 | 0.00 | 92 | 1012.8 |
| 20260508094858 | 55 | 192 | 0.0 | 0.0 | 0.00 | 0.00 | 0.00 | 92 | 1012.7 |
| 20260508094758 | 55 | 192 | 0.0 | 0.0 | 0.00 | 0.00 | 0.00 | 92 | 1012.8 |
| 20260508094658 | 55 | 192 | 0.0 | 0.0 | 0.00 | 0.00 | 0.00 | 92 | 1012.9 |
| 20260508094558 | 55 | 192 | 0.0 | 0.0 | 0.00 | 0.00 | 0.00 | 92 | 1012.5 |
| 20260508094458 | 55 | 192 | 0.0 | 0.0 | 0.00 | 0.00 | 0.00 | 92 | 1013.1 |
| 20260508094357 | 55 | 192 | 0.0 | 0.0 | 0.00 | 0.00 | 0.00 | 92 | 1013.1 |
| 20260508094257 | 55 | 192 | 0.0 | 0.0 | 0.00 | 0.00 | 0.00 | 92 | 1013.2 |
| 20260508094157 | 55 | 192 | 0.0 | 0.0 | 0.00 | 0.00 | 0.00 | 92 | 1013.2 |
| 20260508094057 | 55 | 192 | 0.0 | 0.0 | 0.00 | 0.00 | 0.00 | 92 | 1013.2 |
| 20260508093956 | 55 | 192 | 0.0 | 0.0 | 0.00 | 0.00 | 0.00 | 92 | 1013.2 |
| 20260508093856 | 55 | 192 | 0.0 | 0.0 | 0.00 | 0.00 | 0.00 | 92 | 1013.2 |
| 20260508093758 | 55 | 192 | 0.0 | 0.0 | 0.00 | 0.00 | 0.00 | 92 | 1013.1 |
| 20260508093657 | 55 | 192 | 0.0 | 0.0 | 0.00 | 0.00 | 0.00 | 92 | 1013.1 |
| 20260508093557 | 55 | 192 | 0.0 | 0.0 | 0.00 | 0.00 | 0.00 | 92 | 1013.1 |
| 20260508093457 | 55 | 192 | 0.0 | 0.0 | 0.00 | 0.00 | 0.00 | 93 | 1013.2 |
| 20260508093357 | 55 | 192 | 0.0 | 0.0 | 0.00 | 0.00 | 0.00 | 93 | 1013.2 |
| 20260508093158 | 55 | 192 | 0.0 | 0.0 | 0.00 | 0.00 | 0.00 | 93 | 1013.3 |
| 20260508093103 | 55 | 192 | 0.0 | 0.0 | 0.00 | 0.00 | 0.00 | 93 | 1012.8 |
| 20260508093057 | 55 | 192 | 0.0 | 0.0 | 0.00 | 0.00 | 0.00 | 93 | 1013.2 |
| 20260508092958 | 55 | 192 | 0.0 | 0.0 | 0.00 | 0.00 | 0.00 | 93 | 1013.3 |
| 20260508092857 | 55 | 192 | 0.0 | 0.0 | 0.00 | 0.00 | 0.00 | 93 | 1013.3 |
| 20260508092757 | 55 | 192 | 0.0 | 0.0 | 0.00 | 0.00 | 0.00 | 93 | 1013.3 |
| 20260508092657 | 55 | 192 | 0.0 | 0.0 | 0.00 | 0.00 | 0.00 | 93 | 1013.3 |
| 20260508092557 | 55 | 192 | 0.0 | 0.0 | 0.00 | 0.00 | 0.00 | 93 | 1013.3 |
| 20260508092357 | 55 | 192 | 0.0 | 0.0 | 0.00 | 0.00 | 0.00 | 93 | 1013.2 |
| 20260508092257 | 55 | 192 | 0.0 | 0.0 | 0.00 | 0.00 | 0.00 | 93 | 1013.2 |
| 20260508092157 | 55 | 192 | 0.0 | 0.0 | 0.00 | 0.00 | 0.00 | 93 | 1013.3 |
| 20260508092057 | 55 | 192 | 0.0 | 0.0 | 0.00 | 0.00 | 0.00 | 93 | 1013.4 |
| 20260508091757 | 55 | 192 | 0.0 | 0.0 | 0.00 | 0.00 | 0.00 | 93 | 1013.4 |
| 20260508091656 | 55 | 192 | 0.0 | 0.0 | 0.00 | 0.00 | 0.00 | 93 | 1013.4 |
| 20260508091558 | 55 | 192 | 0.0 | 0.0 | 0.00 | 0.00 | 0.00 | 92 | 1013.0 |
| 20260508091358 | 54 | 192 | 0.0 | 0.0 | 0.00 | 0.00 | 0.00 | 92 | 1013.4 |
| 20260508091258 | 54 | 192 | 0.0 | 0.0 | 0.00 | 0.00 | 0.00 | 92 | 1013.4 |
| 20260508091157 | 54 | 192 | 0.0 | 0.0 | 0.00 | 0.00 | 0.00 | 92 | 1013.4 |
| 20260508090857 | 54 | 192 | 0.0 | 0.0 | 0.00 | 0.00 | 0.00 | 92 | 1013.2 |
| 20260508090757 | 54 | 192 | 0.0 | 0.0 | 0.00 | 0.00 | 0.00 | 92 | 1013.2 |
| 20260508090657 | 54 | 192 | 0.0 | 0.0 | 0.00 | 0.00 | 0.00 | 92 | 1013.1 |
| 20260508090457 | 54 | 192 | 0.0 | 0.0 | 0.00 | 0.00 | 0.00 | 92 | 1013.1 |
| 20260508090357 | 54 | 192 | 0.0 | 0.0 | 0.00 | 0.00 | 0.00 | 92 | 1013.1 |
| 20260508090158 | 54 | 192 | 0.0 | 0.0 | 0.00 | 0.00 | 0.00 | 92 | 1013.1 |
| 20260508090109 | 54 | 192 | 0.0 | 0.0 | 0.00 | 0.00 | 0.00 | 92 | 1012.7 |
| 20260508090057 | 54 | 192 | 0.0 | 0.0 | 0.00 | 0.00 | 0.00 | 92 | 1013.1 |
| 20260508085957 | 54 | 192 | 0.0 | 0.0 | 0.00 | 0.00 | 0.00 | 92 | 1013.1 |
| 20260508085856 | 54 | 192 | 0.0 | 0.0 | 0.00 | 0.00 | 0.00 | 92 | 1013.2 |
| 20260508085757 | 55 | 193 | 0.0 | 0.0 | 0.00 | 0.00 | 0.00 | 92 | 1013.2 |
| 20260508085657 | 54 | 192 | 0.0 | 0.0 | 0.00 | 0.00 | 0.00 | 92 | 1013.3 |
| 20260508085557 | 55 | 193 | 0.0 | 0.0 | 0.00 | 0.00 | 0.00 | 92 | 1013.3 |
| 20260508085457 | 55 | 192 | 0.0 | 0.0 | 0.00 | 0.00 | 0.00 | 92 | 1013.4 |
| 20260508085357 | 55 | 192 | 0.0 | 0.0 | 0.00 | 0.00 | 0.00 | 92 | 1013.4 |
| 20260508085256 | 55 | 192 | 0.0 | 0.0 | 0.00 | 0.00 | 0.00 | 92 | 1013.5 |
| 20260508085156 | 55 | 193 | 0.0 | 0.0 | 0.00 | 0.00 | 0.00 | 92 | 1013.5 |
| 20260508085057 | 55 | 193 | 0.0 | 0.0 | 0.00 | 0.00 | 0.00 | 92 | 1013.5 |
| 20260508084856 | 55 | 193 | 0.0 | 0.0 | 0.00 | 0.00 | 0.00 | 92 | 1013.5 |
| 20260508084757 | 54 | 193 | 0.0 | 0.0 | 0.00 | 0.00 | 0.00 | 92 | 1013.6 |
| 20260508084656 | 54 | 193 | 0.0 | 0.0 | 0.00 | 0.00 | 0.00 | 92 | 1013.6 |
| 20260508084555 | 54 | 193 | 0.0 | 0.0 | 0.00 | 0.00 | 0.00 | 92 | 1013.3 |
| 20260508084455 | 55 | 193 | 0.0 | 0.0 | 0.00 | 0.00 | 0.00 | 92 | 1013.7 |
| 20260508084357 | 55 | 193 | 0.0 | 0.0 | 0.00 | 0.00 | 0.00 | 92 | 1013.7 |
| 20260508084256 | 54 | 192 | 0.0 | 0.0 | 0.00 | 0.00 | 0.00 | 92 | 1013.6 |
| 20260508084156 | 54 | 193 | 0.0 | 0.0 | 0.00 | 0.00 | 0.00 | 92 | 1013.6 |
| 20260508084056 | 55 | 193 | 0.0 | 0.0 | 0.00 | 0.00 | 0.00 | 92 | 1013.6 |
| 20260508083956 | 55 | 193 | 0.0 | 0.0 | 0.00 | 0.00 | 0.00 | 92 | 1013.6 |
| 20260508083755 | 55 | 193 | 0.0 | 0.0 | 0.00 | 0.00 | 0.00 | 92 | 1013.6 |
| 20260508083655 | 55 | 193 | 0.0 | 0.0 | 0.00 | 0.00 | 0.00 | 92 | 1013.5 |
| 20260508083556 | 55 | 193 | 0.0 | 0.0 | 0.00 | 0.00 | 0.00 | 92 | 1013.5 |
| 20260508083457 | 55 | 193 | 0.0 | 2.0 | 0.00 | 0.00 | 0.00 | 92 | 1013.5 |
| 20260508083357 | 55 | 193 | 0.0 | 2.0 | 0.00 | 0.00 | 0.00 | 92 | 1013.6 |
| 20260508083256 | 55 | 193 | 0.0 | 2.0 | 0.00 | 0.00 | 0.00 | 92 | 1013.7 |
| 20260508083156 | 55 | 193 | 0.0 | 2.0 | 0.00 | 0.00 | 0.00 | 92 | 1013.7 |
| 20260508083057 | 55 | 193 | 0.0 | 2.0 | 0.00 | 0.00 | 0.00 | 92 | 1013.7 |
| 20260508083055 | 55 | 193 | 0.0 | 2.0 | 0.00 | 0.00 | 0.00 | 92 | 1013.3 |
| 20260508082956 | 55 | 193 | 0.0 | 2.0 | 0.00 | 0.00 | 0.00 | 92 | 1013.7 |
| 20260508082856 | 55 | 192 | 0.0 | 2.0 | 0.00 | 0.00 | 0.00 | 92 | 1013.6 |
| 20260508082657 | 54 | 193 | 0.0 | 2.0 | 0.00 | 0.00 | 0.00 | 92 | 1013.6 |
| 20260508082557 | 54 | 193 | 0.0 | 2.0 | 0.00 | 0.00 | 0.00 | 92 | 1013.7 |
| 20260508082457 | 54 | 193 | 0.0 | 2.0 | 0.00 | 0.00 | 0.00 | 92 | 1013.8 |
| 20260508082356 | 54 | 193 | 0.0 | 2.0 | 0.00 | 0.00 | 0.00 | 92 | 1013.9 |
| 20260508082257 | 54 | 193 | 0.0 | 2.0 | 0.00 | 0.00 | 0.00 | 92 | 1014.0 |
| 20260508082156 | 54 | 193 | 0.0 | 0.0 | 0.00 | 0.00 | 0.00 | 92 | 1014.0 |
| 20260508081856 | 54 | 193 | 0.0 | 1.0 | 0.00 | 0.00 | 0.00 | 92 | 1014.0 |
| 20260508081756 | 54 | 193 | 0.0 | 1.0 | 0.00 | 0.00 | 0.00 | 92 | 1014.0 |
| 20260508081656 | 54 | 193 | 0.0 | 1.0 | 0.00 | 0.00 | 0.00 | 92 | 1013.8 |
| 20260508081610 | 54 | 193 | 0.0 | 1.0 | 0.00 | 0.00 | 0.00 | 92 | 1013.4 |
| 20260508081458 | 54 | 193 | 0.0 | 2.0 | 0.00 | 0.00 | 0.00 | 92 | 1013.8 |
| 20260508081357 | 54 | 193 | 0.0 | 2.0 | 0.00 | 0.00 | 0.00 | 92 | 1013.8 |
| 20260508081257 | 54 | 192 | 0.0 | 2.0 | 0.00 | 0.00 | 0.00 | 92 | 1013.8 |
| 20260508081156 | 54 | 193 | 0.0 | 2.0 | 0.00 | 0.00 | 0.00 | 92 | 1013.9 |
| 20260508081055 | 55 | 193 | 0.0 | 2.0 | 0.00 | 0.00 | 0.00 | 92 | 1014.0 |
| 20260508080956 | 55 | 193 | 0.0 | 2.0 | 0.00 | 0.00 | 0.00 | 92 | 1013.9 |
| 20260508080857 | 55 | 193 | 0.0 | 2.0 | 0.00 | 0.00 | 0.00 | 92 | 1013.9 |
| 20260508080756 | 55 | 193 | 0.0 | 2.0 | 0.00 | 0.00 | 0.00 | 92 | 1013.8 |
| 20260508080657 | 55 | 192 | 0.0 | 2.0 | 0.00 | 0.00 | 0.00 | 92 | 1013.9 |
| 20260508080556 | 55 | 193 | 0.0 | 0.0 | 0.00 | 0.00 | 0.00 | 92 | 1014.0 |
| 20260508080456 | 55 | 192 | 0.0 | 0.0 | 0.00 | 0.00 | 0.00 | 92 | 1014.1 |
| 20260508080356 | 55 | 192 | 0.0 | 0.0 | 0.00 | 0.00 | 0.00 | 92 | 1014.1 |
| 20260508080257 | 55 | 193 | 0.0 | 0.0 | 0.00 | 0.00 | 0.00 | 92 | 1014.1 |
| 20260508080156 | 55 | 193 | 0.0 | 0.0 | 0.00 | 0.00 | 0.00 | 92 | 1014.1 |
| 20260508080056 | 55 | 193 | 0.0 | 0.0 | 0.00 | 0.00 | 0.00 | 92 | 1014.1 |
| 20260508075956 | 55 | 193 | 0.0 | 1.0 | 0.00 | 0.00 | 0.00 | 92 | 1014.0 |
| 20260508075856 | 55 | 193 | 0.0 | 2.0 | 0.00 | 0.00 | 0.00 | 92 | 1013.9 |
| 20260508075756 | 55 | 193 | 0.0 | 2.0 | 0.00 | 0.00 | 0.00 | 92 | 1013.9 |
| 20260508075357 | 55 | 193 | 0.0 | 2.0 | 0.00 | 0.00 | 0.00 | 93 | 1014.0 |
| 20260508075256 | 55 | 193 | 0.0 | 2.0 | 0.00 | 0.00 | 0.00 | 93 | 1014.1 |
| 20260508075156 | 55 | 192 | 0.0 | 2.0 | 0.00 | 0.00 | 0.00 | 93 | 1014.2 |